GFSFLT1_sfc_thetae_003.txt.gz
Theta_e
321 315 309 308 314 315 316 316 316 315 316 314 314 317 319 329 332 332 332 335 340 355 355 354 354 353 353 349 347 344 341 342
313 310 313 312 314 316 315 316 316 315 311 318 322 320 323 328 328 328 327 329 343 348 348 350 352 352 351 349 345 343 340 341
312 312 314 316 317 316 313 315 314 314 311 314 323 325 326 326 326 325 326 328 331 344 342 344 347 347 348 345 344 342 340 340
309 310 315 316 317 315 314 314 314 312 312 314 326 324 325 326 326 328 327 330 332 341 343 344 341 339 338 337 337 337 337 337
311 311 312 314 318 314 313 314 313 316 310 317 321 324 326 326 327 327 328 327 329 330 333 337 335 332 330 331 332 333 333 333
312 310 311 317 316 318 314 314 318 317 310 312 322 325 326 325 324 324 325 325 327 328 325 328 330 333 329 331 331 331 331 331
310 310 312 318 315 318 319 316 316 316 316 319 323 324 322 322 321 322 324 324 326 324 328 330 331 330 330 333 331 330 330 329
315 315 314 316 316 317 316 315 314 315 318 319 320 321 320 320 319 320 321 323 323 325 331 332 329 332 333 331 332 331 330 328
314 315 316 315 315 318 314 312 315 313 315 318 319 320 319 319 319 321 323 324 323 327 332 332 331 331 330 330 329 329 329 329
313 314 315 315 317 314 314 315 317 316 316 318 318 319 319 319 320 321 322 322 328 330 333 335 333 331 330 330 330 329 329 330
315 315 317 317 314 314 314 317 317 317 317 317 318 319 322 321 321 323 322 324 329 332 334 336 334 332 332 331 330 331 330 331
315 315 317 313 314 313 315 316 314 316 317 317 316 319 321 321 322 322 322 327 328 331 333 334 334 335 333 335 333 331 331 329
314 314 314 315 310 311 316 317 315 315 316 317 319 320 320 322 324 323 323 329 327 330 329 333 335 335 336 335 336 333 333 333
313 314 314 312 305 314 317 316 315 315 317 317 319 320 321 323 325 325 325 325 329 329 330 334 335 334 334 335 335 335 335 331
308 315 313 311 307 314 317 316 315 316 316 317 318 320 322 323 325 325 326 328 326 328 330 333 335 335 335 337 337 338 333 329
306 312 313 310 309 314 316 316 315 315 317 317 318 319 322 324 325 325 326 330 327 330 333 334 333 332 335 339 337 338 330 327
310 313 311 310 310 312 316 316 314 315 315 318 319 321 323 325 325 324 325 330 329 327 332 330 329 330 331 335 333 334 334 331
309 312 311 310 309 312 313 313 315 315 315 318 319 319 321 324 325 324 326 328 329 328 329 331 330 336 334 336 335 331 334 334
306 310 312 309 306 309 313 314 315 315 317 319 320 319 321 323 324 324 323 328 328 327 328 332 336 336 334 336 337 335 333 332
307 306 301 309 298 306 310 310 312 314 316 318 320 321 321 323 323 323 323 328 328 329 329 332 335 332 333 333 333 336 335 336

GFSFLT1_sfc_thetae_006.txt.gz
Theta_e
318 314 308 308 314 313 315 317 315 314 317 314 313 317 319 329 330 330 336 339 352 353 353 354 353 353 353 352 349 347 344 342
312 308 312 314 315 316 315 316 317 315 311 318 322 320 323 327 327 327 327 335 351 355 355 354 352 353 353 351 349 347 342 341
311 311 314 317 318 317 313 313 314 314 310 315 321 324 325 326 326 326 331 333 342 351 347 345 344 347 349 346 344 343 341 341
307 309 314 317 318 315 313 314 314 313 312 316 323 323 324 325 327 327 331 335 339 344 344 344 346 345 340 336 335 336 337 337
310 309 311 315 320 315 315 312 313 316 310 318 321 323 326 327 329 332 331 332 335 336 342 344 343 338 334 331 330 331 332 333
310 309 309 317 318 319 317 313 319 317 310 311 321 325 326 325 324 324 326 325 332 335 330 335 335 335 334 332 332 331 331 331
309 309 311 316 314 319 321 316 317 317 315 319 323 324 322 322 321 321 324 329 329 328 331 333 333 333 334 335 334 332 332 330
315 315 312 314 314 316 315 315 315 315 318 320 321 320 318 319 319 321 323 327 329 330 334 336 330 336 337 335 335 334 332 331
316 317 315 313 313 316 314 311 315 313 315 318 318 320 319 318 320 322 325 328 328 333 337 337 333 334 333 333 334 334 332 331
316 318 314 311 314 314 314 315 318 317 317 318 318 318 319 319 323 322 326 329 333 336 337 340 337 333 333 333 334 330 332 332
317 316 315 314 313 314 314 317 318 317 317 317 319 320 324 326 328 326 327 328 335 336 340 341 339 336 336 335 331 333 332 331
316 315 315 312 313 314 315 318 316 316 316 317 318 320 323 325 326 328 329 332 334 337 340 340 339 338 336 336 334 333 333 328
313 314 312 315 310 311 316 317 316 316 317 318 319 319 320 325 328 330 329 334 335 335 336 338 337 338 338 336 336 334 333 330
311 313 314 313 305 313 317 317 316 316 316 317 319 320 324 326 329 332 332 334 335 331 335 339 340 339 336 337 339 337 336 333
307 313 312 311 307 313 317 316 317 317 318 317 319 323 327 325 328 331 332 335 334 337 334 338 338 336 335 339 339 340 337 330
305 310 312 309 309 313 316 315 317 318 318 318 319 321 324 326 328 330 332 336 337 336 338 340 336 333 332 339 341 339 335 330
309 312 310 309 311 312 315 315 316 317 319 320 320 323 325 326 328 329 332 334 336 336 340 337 332 333 335 335 337 335 336 333
308 311 310 309 309 312 314 315 316 315 317 319 321 321 323 325 328 328 330 333 336 337 338 337 336 339 337 337 336 336 337 335
305 309 310 308 307 310 313 315 316 317 319 320 321 320 322 323 326 327 329 332 334 336 337 339 340 338 338 337 334 335 335 333
307 304 299 308 298 308 310 311 313 314 317 318 321 322 322 323 325 327 326 331 334 336 337 337 339 337 335 331 329 333 334 334

GFSFLT1_sfc_thetae_009.txt.gz
Theta_e
311 306 303 304 311 313 309 312 310 308 313 312 310 316 320 322 325 340 340 340 344 354 353 353 353 352 352 351 351 348 347 344
305 302 308 308 312 312 309 310 311 310 309 314 319 317 322 325 325 324 327 342 350 353 353 353 352 352 352 351 349 347 345 343
303 306 312 312 316 310 308 308 308 310 308 310 318 322 322 322 322 319 334 343 349 354 354 354 352 351 352 348 345 342 342 342
299 305 310 312 313 314 308 310 309 308 311 310 317 319 319 321 319 322 331 336 340 351 349 348 348 348 346 342 339 336 336 337
304 305 307 312 315 312 311 308 308 310 307 312 315 318 318 319 320 321 324 330 333 336 341 348 348 347 343 338 334 333 332 333
305 304 304 314 314 313 312 311 316 315 307 308 314 319 319 318 318 318 318 319 322 330 332 333 335 340 337 334 334 334 333 332
304 305 308 311 308 314 317 312 314 313 312 317 320 319 315 312 313 314 318 317 315 318 321 324 327 332 336 336 336 335 332 330
311 312 310 310 308 310 312 311 312 312 316 319 319 315 313 312 311 312 314 316 318 322 322 323 328 326 326 327 328 326 325 324
312 315 314 312 308 310 309 308 312 310 312 314 315 313 312 311 311 314 315 318 318 320 323 323 324 325 323 322 323 324 324 324
313 315 314 310 311 309 310 311 316 314 315 313 312 311 311 311 313 314 314 316 323 325 324 324 326 325 324 325 323 322 323 324
315 315 311 312 310 310 310 315 317 314 313 312 311 312 312 313 315 315 315 319 323 323 325 327 326 326 325 325 324 323 324 325
314 314 311 310 311 311 311 316 314 312 311 311 310 313 313 314 314 315 315 320 322 323 325 326 326 325 325 327 326 325 325 325
310 311 309 312 307 307 312 313 312 310 311 311 312 315 314 315 316 316 315 321 321 322 324 323 323 325 327 327 328 325 325 325
307 309 311 309 301 309 313 311 310 312 312 312 312 312 315 317 318 317 318 320 321 325 322 322 324 325 326 327 326 326 327 325
303 310 309 307 303 310 312 311 310 311 312 313 311 314 317 320 319 317 317 320 320 322 321 323 324 325 326 327 326 327 327 324
301 306 307 305 306 309 311 310 309 310 312 312 314 314 318 320 321 319 320 321 320 320 322 324 323 326 324 326 327 328 326 324
304 308 306 306 306 308 310 310 308 309 311 312 313 316 318 320 320 319 320 321 321 321 321 321 320 322 321 321 324 325 327 326
303 307 306 306 305 308 311 309 309 309 309 309 313 314 317 318 318 317 318 320 323 321 321 321 322 325 324 325 326 327 327 326
299 305 306 303 299 303 309 309 310 311 310 313 313 313 315 318 316 316 316 318 322 322 320 323 325 326 324 325 325 325 325 324
302 300 294 303 290 299 304 305 308 309 308 311 313 315 315 317 315 316 318 320 323 321 320 324 324 323 322 320 320 323 325 326

GFSFLT1_sfc_thetae_012.txt.gz
Theta_e
310 304 299 302 310 311 312 309 308 306 310 310 309 318 317 319 337 333 334 340 344 354 353 353 353 352 351 349 348 346 347 345
304 301 306 309 313 314 308 308 308 309 308 312 317 319 321 329 338 334 336 340 345 354 353 354 352 351 350 349 348 348 347 346
301 303 308 311 314 309 305 307 306 307 308 309 317 322 322 326 334 330 335 337 346 354 354 354 353 351 351 351 351 347 345 345
297 301 308 308 312 313 309 309 307 308 308 308 316 319 319 318 323 334 338 342 347 352 353 353 354 353 352 350 347 344 343 341
302 304 305 309 313 310 311 309 306 311 306 310 313 316 318 317 324 330 336 339 341 345 349 353 351 349 348 345 343 341 337 335
302 302 303 310 309 309 311 311 313 313 307 306 313 316 316 316 318 324 328 330 331 330 333 336 339 346 345 343 339 335 335 334
301 303 306 312 305 311 313 310 311 311 311 316 317 315 314 312 312 313 319 318 322 323 329 329 330 334 341 338 336 336 335 335
311 309 308 311 308 308 307 308 309 311 316 317 316 314 312 311 311 310 311 312 316 319 321 321 327 325 328 328 327 328 326 323
312 313 313 311 311 313 307 304 307 308 313 314 313 312 312 311 311 309 312 316 317 318 320 321 322 322 322 321 322 323 323 322
313 315 313 310 313 311 309 309 312 313 315 314 312 311 311 310 310 311 313 315 316 320 321 321 323 322 322 322 321 321 322 323
315 314 313 314 311 310 310 313 314 313 314 313 313 312 311 310 312 311 314 319 321 322 323 324 323 323 322 323 323 322 321 322
313 312 313 310 311 310 312 314 312 310 311 311 311 311 309 311 311 312 317 320 320 322 323 324 322 322 323 322 324 324 323 323
310 309 307 309 306 307 311 312 310 308 309 310 311 311 312 314 313 314 317 320 319 322 323 323 322 321 321 323 325 324 324 324
303 306 308 306 300 308 311 309 309 310 308 309 308 312 312 314 314 313 318 318 320 325 321 320 320 322 323 324 324 323 324 324
298 305 306 304 302 308 312 311 309 308 309 310 309 310 312 315 315 315 318 318 318 319 318 320 321 321 322 324 324 325 325 324
297 302 304 302 302 307 310 309 309 308 309 310 309 310 314 316 315 316 317 318 318 318 320 321 319 320 322 321 324 326 326 324
300 304 302 301 303 306 309 307 305 306 307 308 309 313 316 317 316 317 318 317 317 318 318 319 317 320 319 320 321 323 325 326
300 303 300 300 301 306 307 307 307 307 307 307 309 313 315 315 315 316 317 318 318 318 318 318 319 322 322 321 323 323 324 327
297 301 302 299 298 302 307 307 308 308 308 310 311 311 314 314 313 314 316 318 319 318 319 319 322 322 321 321 322 323 322 324
300 298 291 300 289 296 301 303 305 306 305 308 310 313 314 313 312 312 314 318 319 319 318 321 321 319 318 318 317 320 321 324

GFSFLT1_sfc_thetae_015.txt.gz
Theta_e
309 302 298 300 308 309 312 312 306 304 309 308 308 317 318 321 332 330 333 340 343 353 352 353 351 351 350 348 347 345 344 344
304 301 305 307 311 312 313 307 306 307 306 310 316 317 318 329 332 330 331 336 344 353 353 353 352 352 351 349 347 346 346 346
301 303 306 309 312 309 306 306 305 307 306 307 314 320 322 334 332 328 329 334 342 353 354 354 353 351 350 350 349 348 347 346
296 301 306 308 310 308 308 308 306 307 307 306 314 318 323 333 331 331 332 333 340 352 353 353 353 352 351 351 350 350 348 345
299 303 304 307 309 306 307 307 305 308 305 307 312 317 317 322 327 330 334 337 342 346 350 353 352 352 352 352 350 347 345 343
301 300 302 308 308 306 307 308 310 313 306 305 311 315 314 321 325 329 334 337 339 338 341 340 343 352 351 348 345 344 341 336
301 302 304 308 305 312 311 308 309 310 311 314 315 314 314 313 315 318 325 325 327 329 331 333 334 338 345 344 342 339 335 336
308 308 306 308 309 311 308 309 307 310 313 316 314 313 313 312 313 312 317 315 322 323 326 327 330 326 329 328 327 326 328 325
309 312 311 310 310 314 309 307 307 307 310 312 311 311 312 313 314 314 315 313 316 318 320 320 321 321 322 323 321 321 325 323
311 314 310 309 312 311 311 311 315 311 313 312 311 311 312 312 311 308 311 313 317 317 318 318 320 320 320 320 320 320 322 321
312 312 312 313 310 311 311 315 316 313 313 312 312 311 313 313 311 309 310 314 316 318 319 320 321 320 319 320 321 320 320 321
311 312 312 310 310 311 312 314 313 309 310 312 312 311 310 308 309 309 312 314 318 319 321 322 320 320 320 321 321 321 321 322
304 307 307 311 304 306 311 311 309 308 309 311 312 313 310 311 310 311 315 318 319 319 321 321 320 320 320 320 322 322 322 323
301 305 307 303 297 306 310 308 308 309 307 309 310 311 312 310 311 313 317 318 318 324 321 320 318 319 320 322 322 322 322 322
296 302 302 301 299 305 309 307 306 308 308 307 308 308 309 311 311 314 318 317 318 320 319 318 318 319 319 321 321 322 323 323
293 299 300 299 299 304 308 307 307 308 309 307 307 307 309 312 312 316 316 317 317 317 316 318 318 317 319 319 321 323 323 323
297 301 299 298 299 302 306 304 305 305 306 307 307 309 312 312 315 317 316 316 316 316 317 317 315 317 317 318 319 321 322 325
297 301 298 298 297 302 303 304 305 307 307 305 308 310 312 312 316 316 315 316 315 316 317 316 316 319 319 318 321 322 321 325
294 299 300 297 296 299 303 304 307 307 306 307 308 309 311 312 315 315 315 315 317 316 317 316 320 319 318 319 320 319 319 321
296 293 289 297 287 294 299 301 303 304 303 305 308 310 311 312 311 314 315 317 317 317 316 319 319 318 316 316 314 317 318 320

GFSFLT1_sfc_thetae_018.txt.gz
Theta_e
309 302 298 299 307 308 312 313 307 303 307 307 307 315 319 324 331 329 329 337 344 354 353 352 352 351 350 349 347 344 342 341
304 301 305 305 309 310 309 310 305 305 304 309 314 315 320 324 331 330 331 337 345 353 353 353 353 352 351 348 347 345 345 344
301 303 306 309 311 309 306 305 305 306 305 306 313 319 320 329 330 328 329 334 341 353 353 353 353 352 351 350 350 348 346 345
297 302 305 307 310 307 306 306 304 304 305 306 312 317 322 329 327 328 328 332 339 351 353 353 353 353 352 351 350 348 348 347
300 302 304 306 309 305 304 306 306 306 303 306 310 316 325 329 327 327 329 332 337 344 350 353 353 352 352 351 351 350 350 348
301 301 301 308 307 306 306 307 310 311 304 304 309 315 318 323 325 327 330 331 335 341 345 345 347 353 352 352 351 350 347 345
299 300 302 305 304 309 312 308 307 310 309 312 314 314 316 317 320 323 330 331 333 336 338 338 339 344 351 350 348 346 342 341
305 305 304 305 306 309 308 310 309 310 311 313 313 312 313 315 318 318 323 324 329 330 332 332 336 333 334 334 332 330 330 328
307 309 307 308 308 311 308 307 311 308 311 311 311 310 312 314 317 319 323 323 324 326 327 326 325 324 323 325 324 324 325 326
310 310 308 308 311 310 312 311 315 315 314 311 309 309 311 313 315 313 313 317 318 321 322 321 320 320 320 321 321 321 321 324
311 309 309 311 309 310 310 316 317 315 312 310 310 311 312 313 314 312 309 312 316 317 318 318 319 320 319 320 322 321 321 322
307 308 310 309 309 310 313 317 313 310 310 309 310 310 310 310 310 309 310 312 315 318 317 319 320 319 319 320 321 321 321 321
301 303 303 307 302 304 311 312 308 309 309 309 310 311 310 312 312 312 310 314 316 317 320 320 320 320 320 320 321 321 322 323
298 302 303 303 295 304 308 306 306 307 308 308 308 311 312 313 311 310 313 315 318 322 321 320 319 319 320 320 321 322 323 323
293 301 301 300 295 303 305 305 305 307 308 308 308 308 312 311 309 314 316 317 318 320 320 320 318 318 319 321 321 322 323 323
291 297 298 295 296 301 304 303 304 305 306 306 307 308 308 309 312 316 317 318 319 319 319 318 317 318 319 320 321 322 324 325
293 299 297 295 296 299 303 302 301 303 304 305 305 308 309 310 314 316 317 317 317 317 316 317 316 316 318 319 320 322 324 325
295 300 297 296 295 299 301 301 301 304 304 305 305 309 309 310 313 316 316 316 315 316 316 317 316 319 320 320 321 322 323 324
293 298 296 294 293 296 302 302 303 304 305 305 305 307 308 310 312 314 315 315 316 316 317 317 319 319 319 319 320 320 321 322
296 292 286 294 284 294 297 299 301 303 302 303 305 309 308 310 311 314 314 315 316 316 317 318 320 318 318 317 315 318 320 321

GFSFLT1_sfc_thetae_024.txt.gz
Theta_e
318 315 310 312 319 319 321 321 319 319 320 318 318 322 325 336 342 342 339 341 347 354 353 353 351 350 349 349 347 344 343 342
313 312 317 318 320 320 320 320 320 319 316 320 325 324 329 339 341 339 339 340 347 355 354 353 352 352 351 350 348 346 344 342
310 311 316 322 323 323 319 318 319 318 316 319 325 327 329 337 340 337 339 340 346 354 354 354 353 353 352 351 350 349 345 344
306 310 315 320 323 322 320 319 319 316 316 319 326 327 329 335 340 339 339 342 347 354 354 353 353 353 352 352 350 350 348 348
309 309 311 315 321 318 319 319 318 321 316 322 325 330 330 334 339 341 341 341 346 351 354 354 353 352 352 351 351 351 350 349
310 308 308 315 318 320 319 318 322 321 316 319 328 330 330 333 334 339 339 341 343 350 349 350 350 354 353 352 352 351 351 351
310 310 311 317 315 319 322 320 321 322 322 325 328 329 330 331 333 334 335 340 342 343 347 349 348 349 353 352 351 352 350 349
315 315 314 316 316 317 316 318 318 321 325 326 328 329 328 328 329 331 333 336 340 344 346 348 344 347 351 347 348 348 346 346
317 318 318 316 316 319 316 314 318 318 321 324 326 327 328 329 330 329 332 335 338 345 348 348 344 345 347 346 345 346 347 346
318 318 317 315 319 316 318 318 322 323 324 323 324 326 326 327 329 330 331 334 339 342 347 349 345 344 345 343 343 341 341 344
317 318 318 319 316 316 317 320 322 322 322 323 324 324 326 327 329 332 331 333 338 343 348 349 349 345 345 341 339 338 337 340
314 315 317 314 315 316 317 318 319 320 319 320 321 322 324 326 328 332 334 334 338 342 347 348 348 349 344 341 337 337 335 337
312 314 312 315 310 311 317 317 317 317 318 319 320 321 322 325 329 332 335 337 338 342 346 349 347 345 341 337 337 334 335 341
311 312 313 312 305 312 316 315 314 315 316 317 320 321 323 326 329 332 335 336 338 337 343 347 346 342 337 336 335 335 337 339
306 312 310 309 306 312 316 314 313 314 316 317 318 321 325 327 330 333 335 336 335 338 341 343 343 339 339 339 336 337 338 338
303 310 307 306 306 311 314 313 312 315 316 317 318 319 324 328 330 331 334 335 336 337 340 342 338 338 335 335 335 337 337 338
306 309 307 306 306 310 313 312 312 314 316 317 318 322 326 327 329 328 332 333 335 336 340 337 334 332 331 330 332 335 337 340
305 308 307 305 305 309 312 312 313 314 315 317 318 321 325 327 327 329 331 333 335 336 338 337 334 334 333 332 333 336 338 340
300 305 307 304 302 305 310 313 314 315 317 317 317 320 324 325 327 329 331 333 334 337 338 338 338 336 336 337 336 334 335 336
300 299 295 304 294 303 307 310 312 314 315 316 317 322 324 326 328 330 331 333 335 337 338 338 338 335 335 330 328 335 335 338

GFSFLT1_sfc_thetae_027.txt.gz
Theta_e
316 313 308 310 318 320 323 324 323 321 323 321 319 326 327 338 341 339 338 349 347 354 353 353 352 350 350 349 348 345 343 342
314 312 317 316 321 322 320 323 322 322 317 323 328 326 330 337 339 337 337 343 353 353 354 354 353 351 350 350 348 347 345 344
310 310 315 319 323 323 320 321 320 321 317 320 328 330 331 336 338 336 337 339 350 354 354 354 354 352 351 350 350 349 346 344
307 309 314 319 323 323 322 322 321 318 318 321 329 330 331 334 338 338 337 340 344 355 354 354 353 352 352 351 350 350 349 348
310 310 312 316 321 320 320 319 320 322 317 323 328 332 332 334 337 340 338 340 342 355 355 354 353 352 352 352 351 351 350 349
312 309 309 317 318 321 320 319 326 324 317 319 328 332 333 334 335 336 339 339 341 348 354 352 349 354 353 353 352 351 351 350
310 311 313 319 317 322 323 321 322 323 323 326 329 331 330 330 332 334 335 339 341 340 346 350 347 349 353 352 351 351 349 350
317 316 315 318 318 319 319 319 319 321 325 327 328 329 328 328 327 329 332 336 338 342 345 347 343 350 352 348 347 346 346 347
318 320 320 318 318 321 318 316 319 319 322 325 327 327 327 327 327 328 332 334 338 351 353 349 345 344 349 348 346 347 350 353
319 320 319 317 320 318 319 320 324 323 325 325 325 324 325 326 326 327 329 334 336 343 353 356 348 343 345 347 347 345 345 353
318 318 319 320 317 318 319 323 325 324 324 323 324 324 325 326 327 328 329 332 336 345 354 356 357 346 346 348 344 345 343 345
317 316 318 316 316 317 320 323 322 322 322 323 323 323 324 326 327 330 334 334 338 344 356 353 353 358 352 353 345 341 339 339
315 316 314 316 311 313 319 321 320 320 321 322 322 323 324 326 331 332 333 342 343 349 355 356 355 355 352 346 343 339 337 343
312 314 315 314 307 315 319 319 318 319 319 320 321 322 325 327 332 336 338 341 341 338 345 354 354 352 348 342 340 337 337 338
307 314 313 312 308 315 319 318 317 318 319 319 320 323 328 327 328 335 340 340 340 345 343 350 355 350 348 349 339 336 337 338
304 310 312 310 310 314 317 315 315 317 318 318 319 321 327 329 328 333 337 340 344 343 348 353 349 348 340 338 337 336 337 338
307 311 309 308 309 312 315 315 315 316 318 318 319 324 326 328 333 333 336 339 341 341 351 348 342 336 335 333 336 335 336 340
307 310 309 308 308 312 314 314 315 315 317 318 319 321 324 326 333 333 336 338 339 341 346 345 340 341 337 337 334 334 336 340
303 308 309 308 305 307 311 314 315 316 317 318 319 320 323 324 333 334 334 337 338 341 342 345 346 342 338 338 339 335 334 336
304 303 298 306 297 305 309 310 312 314 316 318 320 322 322 328 332 333 334 337 339 341 341 341 344 343 344 333 329 333 336 334

GFSFLT1_sfc_thetae_030.txt.gz
Theta_e
312 310 305 307 316 318 322 324 322 319 323 320 320 325 329 338 339 341 348 348 346 353 352 353 351 350 349 349 348 347 344 342
309 308 312 314 319 322 321 324 323 321 316 323 328 327 330 336 336 336 343 347 351 352 353 353 352 351 350 349 349 347 345 344
307 308 312 315 319 322 320 321 321 321 316 320 327 330 332 336 337 336 336 345 352 352 354 354 353 352 351 350 349 348 347 346
305 309 313 316 319 320 320 321 322 319 318 321 328 329 330 334 339 336 338 343 353 353 353 353 353 352 351 350 350 350 348 348
308 309 311 314 321 318 317 319 319 322 316 323 327 331 336 336 338 340 340 341 354 352 353 355 353 352 351 350 350 350 349 349
309 309 309 316 317 319 318 317 325 325 317 318 329 332 332 332 332 336 337 337 352 352 351 351 351 353 352 351 351 350 350 350
307 309 311 317 315 320 322 319 321 323 322 325 328 328 328 329 328 329 332 337 345 352 352 350 347 350 353 353 352 352 351 351
313 314 314 317 317 318 318 318 319 320 324 326 327 327 326 326 326 328 328 335 338 342 350 350 347 346 350 350 349 348 345 345
314 318 319 317 317 320 317 315 319 318 321 324 325 327 327 325 326 327 329 330 337 344 348 348 345 345 350 348 346 345 344 345
316 318 318 316 319 317 318 319 323 324 324 325 325 325 325 324 325 327 329 336 339 346 349 347 346 345 350 348 346 344 344 347
317 318 318 318 316 315 317 321 324 324 324 324 325 326 327 327 327 330 332 338 340 349 347 349 351 345 348 349 346 345 347 347
315 315 316 314 315 315 317 322 321 322 322 324 324 325 325 328 330 336 339 340 343 350 349 349 346 352 351 350 349 347 347 347
313 314 314 316 311 312 318 319 319 319 321 322 324 324 324 327 333 341 341 341 342 349 352 350 351 349 359 352 351 348 346 348
311 313 314 313 306 315 318 317 317 319 320 321 323 324 326 330 334 345 343 339 347 337 352 352 353 352 350 350 349 349 344 345
306 312 312 312 307 314 318 317 317 319 320 321 322 324 331 332 332 338 342 348 347 348 351 351 354 353 351 355 347 345 345 343
303 309 311 309 309 314 317 317 317 318 319 319 319 322 327 333 333 337 343 345 352 352 354 351 352 352 349 347 345 344 343 343
306 310 308 308 308 311 315 315 315 317 318 319 321 325 329 331 333 342 342 345 351 351 353 350 348 344 341 339 340 340 342 343
306 309 308 307 307 312 314 315 316 316 318 319 320 322 326 331 336 341 343 345 347 348 350 349 347 346 341 339 337 339 340 343
300 305 307 306 304 308 312 315 316 317 318 319 319 319 321 325 338 338 339 341 342 346 348 348 345 345 348 343 344 340 341 340
301 299 296 305 295 306 310 311 313 315 316 317 319 321 322 325 335 336 337 339 342 345 345 346 347 344 342 336 335 338 337 339

GFSFLT1_sfc_thetae_033.txt.gz
Theta_e
305 303 299 299 311 315 319 321 319 317 320 317 317 327 327 331 344 342 339 341 342 352 351 351 350 349 348 348 347 346 343 341
303 302 307 309 313 319 319 322 321 319 315 319 327 325 330 341 344 342 340 339 347 353 352 351 351 350 349 349 348 347 345 344
300 303 309 313 316 319 318 320 320 320 315 316 323 329 330 336 343 341 341 339 347 352 352 353 352 351 350 350 349 348 348 346
298 303 310 313 314 320 319 319 319 319 317 316 323 324 328 330 332 341 340 339 346 352 353 352 352 351 350 350 349 349 349 349
301 303 307 312 316 312 311 313 316 319 314 317 321 325 326 328 329 329 341 341 344 346 349 354 352 351 351 349 349 348 348 348
301 302 304 313 315 312 314 315 323 322 314 313 321 326 326 324 327 327 337 344 343 344 345 346 347 353 351 350 350 349 348 349
300 303 306 314 311 317 320 317 318 320 320 323 324 325 320 318 319 322 330 343 344 343 344 343 344 348 351 352 351 350 349 349
307 308 308 312 313 315 316 316 316 318 322 324 322 320 317 316 316 316 317 340 344 343 343 343 345 344 345 345 344 345 344 343
309 311 312 312 314 318 314 312 315 315 319 322 321 319 318 317 316 316 319 327 343 343 344 343 342 342 344 344 343 344 342 339
312 313 312 311 315 314 315 313 317 319 321 321 320 317 317 317 317 317 318 319 335 343 345 343 343 340 343 342 342 342 341 337
313 314 314 315 313 313 314 318 318 319 320 317 317 318 319 319 318 318 316 319 325 335 344 343 339 340 342 342 341 340 339 339
311 310 311 310 311 312 314 317 316 317 316 316 317 317 317 318 318 318 319 321 322 334 339 341 339 339 343 343 342 340 339 339
307 310 309 311 306 308 314 315 315 314 315 316 316 317 317 318 318 320 324 322 323 326 336 339 338 340 342 343 342 340 339 341
303 306 309 309 301 309 313 313 313 315 316 315 315 317 318 318 318 322 323 322 324 344 340 340 338 340 343 342 339 338 336 340
299 307 306 306 302 310 313 313 312 314 314 315 315 316 317 320 318 318 322 321 326 335 340 341 341 340 341 340 335 334 332 333
297 303 305 303 303 308 311 311 311 312 314 315 315 314 316 319 321 321 326 331 331 339 341 342 343 341 340 335 333 332 332 332
300 304 302 302 303 306 310 308 308 309 310 311 313 315 316 320 319 326 326 330 334 340 340 344 341 339 334 331 330 332 334 332
299 304 302 302 301 306 309 308 309 310 311 310 312 314 316 317 320 326 327 333 335 338 340 339 340 336 333 330 329 328 330 331
293 298 300 299 297 300 305 307 310 310 310 311 312 311 313 314 325 327 329 331 332 335 338 338 338 335 332 330 328 327 327 329
296 294 289 297 288 297 301 303 306 309 308 309 309 312 312 312 325 327 329 331 334 337 337 335 334 332 329 324 323 325 325 328

GFSFLT1_sfc_thetae_036.txt.gz
Theta_e
304 300 296 296 309 313 316 319 319 317 318 317 318 327 327 331 341 339 339 343 343 353 352 352 351 349 348 347 346 346 344 342
300 299 304 306 310 313 316 319 321 321 315 318 326 327 329 341 340 337 338 341 347 352 352 352 351 350 348 348 347 347 345 345
298 301 306 311 313 313 315 316 320 321 314 315 324 330 341 341 339 335 336 337 345 352 352 352 352 350 349 348 348 348 348 346
296 301 307 310 312 314 316 318 319 318 318 314 322 330 339 341 338 337 335 334 340 351 352 351 351 350 349 348 348 348 348 348
298 301 304 309 314 311 315 315 315 317 313 315 320 324 335 339 339 338 337 333 339 343 349 352 350 350 349 348 348 348 348 348
297 300 301 310 312 312 312 315 320 322 313 310 318 323 325 331 332 336 337 335 338 339 343 344 345 351 350 349 348 348 348 348
297 300 304 310 308 315 318 316 317 318 318 321 325 323 320 318 319 323 335 335 339 339 338 341 342 346 350 350 350 349 348 348
305 306 304 307 308 310 313 314 314 318 320 322 323 321 319 317 317 319 330 336 339 339 338 338 341 341 344 343 343 343 341 341
311 309 309 309 309 312 311 310 313 313 316 319 319 317 317 317 316 316 323 336 340 339 340 339 338 339 343 341 340 340 340 339
313 313 311 309 311 309 311 312 317 317 318 319 318 317 317 315 316 315 316 330 339 339 339 339 338 338 340 340 339 340 340 339
312 312 312 313 310 310 311 316 318 318 316 315 317 316 316 317 317 316 314 316 337 339 339 340 338 339 339 339 339 339 339 338
308 307 308 308 309 310 312 315 315 315 314 315 315 315 314 315 315 314 316 316 325 338 339 340 339 338 339 339 339 338 338 338
302 303 306 309 305 306 312 314 312 313 314 314 313 314 314 316 316 316 316 318 319 332 339 339 339 337 339 339 339 338 337 337
300 303 304 304 297 308 312 311 310 311 313 314 315 315 316 315 314 315 316 319 319 327 334 338 338 335 339 340 340 338 337 337
297 303 303 302 299 306 310 310 308 309 311 313 314 314 313 316 317 317 318 319 317 328 331 334 333 337 339 339 339 335 336 338
295 300 303 301 300 305 308 308 308 309 311 312 313 314 315 316 317 316 316 318 320 333 333 335 335 335 335 333 331 331 333 336
297 301 300 299 300 303 306 306 305 307 309 310 312 315 317 317 315 319 324 326 327 333 334 338 336 334 331 328 327 327 330 334
294 297 298 298 298 303 305 306 307 307 308 308 307 310 313 314 319 322 324 326 331 334 337 337 336 332 330 328 326 327 329 332
291 295 297 294 292 295 301 303 305 306 307 308 308 309 311 313 317 321 325 329 332 335 335 335 334 332 327 327 326 324 324 325
292 290 286 294 285 293 298 299 302 304 304 304 307 309 310 310 319 322 326 329 333 335 335 335 333 330 327 323 321 322 324 325

GFSFLT1_sfc_thetae_039.txt.gz
Theta_e
303 298 293 296 304 310 314 316 316 315 316 316 317 326 326 330 339 338 340 345 345 353 352 351 351 350 348 347 346 346 343 341
299 298 302 301 307 309 311 314 318 317 313 317 325 326 328 339 338 337 339 343 347 353 352 352 351 350 349 347 347 347 345 343
296 299 304 308 310 309 309 313 316 317 312 315 323 330 338 338 338 334 336 339 343 352 352 352 351 350 349 348 347 347 347 345
294 299 305 308 309 309 313 315 317 315 313 314 322 331 337 338 335 335 334 336 338 351 352 352 352 350 349 348 347 347 347 347
296 299 302 307 309 308 308 312 314 316 313 313 318 327 338 337 335 333 333 333 335 344 348 353 351 350 349 348 347 347 348 347
297 298 300 308 308 309 310 311 318 320 312 309 317 324 335 335 332 331 331 330 332 339 342 344 345 351 350 348 348 347 348 348
297 299 302 307 305 312 314 313 315 316 316 319 321 322 322 320 321 327 334 330 330 335 338 340 341 344 349 349 349 348 348 349
303 305 303 306 305 308 309 310 310 314 318 320 322 318 318 317 322 321 330 332 334 334 334 336 338 337 342 342 341 342 341 341
307 308 311 310 307 309 308 306 310 312 315 317 318 317 317 318 319 322 326 332 335 335 335 333 335 336 339 340 339 340 339 337
313 315 313 310 313 309 309 309 314 316 317 316 316 314 315 316 316 314 315 325 335 337 335 334 333 335 336 338 338 337 338 336
313 314 313 313 310 310 310 314 317 317 317 315 314 314 315 315 316 315 311 316 329 336 336 336 333 334 335 337 336 335 336 337
305 305 307 307 308 310 312 315 314 314 313 312 312 313 313 313 313 313 314 313 323 335 336 337 336 334 334 335 336 335 336 337
299 299 300 306 302 304 310 312 311 311 311 311 312 312 312 313 313 314 315 315 316 333 336 336 336 335 335 336 336 335 335 336
298 300 301 303 296 305 310 311 310 310 311 311 311 312 313 314 313 314 313 313 314 327 335 335 335 336 335 336 336 335 335 336
295 301 301 301 297 305 308 308 307 308 308 310 311 311 313 314 315 314 314 314 314 321 331 335 335 334 334 335 336 336 335 335
292 298 300 299 298 303 306 306 305 306 307 308 309 311 314 315 315 314 314 314 315 317 324 329 329 330 331 333 332 334 335 336
294 299 299 298 298 300 303 304 304 306 307 308 309 311 313 313 314 313 313 313 315 318 326 330 331 331 329 331 329 328 333 336
292 296 294 294 295 298 301 303 303 304 306 306 307 309 311 311 311 312 315 317 318 322 330 331 332 328 328 327 325 327 331 334
289 293 294 292 290 293 297 299 302 305 305 305 306 307 308 309 310 313 316 320 323 328 330 331 330 328 325 325 324 323 324 326
291 288 284 291 283 290 294 296 298 299 302 302 304 307 307 308 308 314 318 326 329 331 332 332 330 327 327 323 321 320 322 324

GFSFLT1_sfc_thetae_042.txt.gz
Theta_e
302 295 292 292 303 307 311 315 314 313 314 315 315 323 322 328 337 338 340 345 345 354 353 353 352 351 349 348 347 347 345 343
298 297 300 300 304 307 309 311 315 317 311 315 323 324 326 336 337 337 339 344 347 353 352 353 352 351 350 348 347 347 345 344
295 297 303 305 308 307 307 308 314 317 311 313 323 330 336 336 337 336 337 341 344 353 352 353 353 352 350 349 348 348 347 345
292 297 303 304 307 306 307 310 316 314 312 314 321 331 334 336 334 334 336 338 340 352 352 352 352 351 350 349 348 348 347 346
296 299 301 304 307 305 306 308 313 316 310 313 315 325 335 334 333 332 333 334 336 346 349 353 352 351 350 349 348 348 347 347
298 298 299 306 305 307 307 309 316 317 310 309 315 330 334 333 331 329 329 331 331 339 343 344 346 352 351 349 348 348 348 347
296 298 300 305 302 309 311 310 313 314 315 317 320 329 328 326 325 329 331 327 328 333 338 340 342 345 350 350 349 348 348 348
302 304 302 305 304 306 307 307 308 312 316 318 320 317 321 323 325 324 328 330 327 329 335 336 339 339 343 342 342 342 342 342
305 306 306 308 307 308 306 303 307 308 312 314 315 315 316 318 322 325 329 331 331 328 331 333 334 335 338 341 339 340 339 339
311 311 312 308 311 309 308 308 312 312 314 314 314 313 314 314 317 317 320 325 331 332 331 331 332 334 335 338 338 337 338 337
313 314 314 314 311 310 310 315 316 315 315 314 314 313 313 314 314 316 314 316 320 333 334 333 330 332 333 334 336 335 335 336
306 305 306 305 305 306 309 314 313 314 314 312 311 312 311 312 313 313 314 314 316 327 334 334 331 330 332 332 334 334 334 336
297 299 300 306 302 303 309 311 309 310 312 312 311 311 311 313 312 312 313 314 314 318 330 333 333 332 331 332 334 333 334 335
297 297 299 302 296 305 309 309 308 310 311 311 312 311 311 312 312 313 313 313 315 319 330 333 334 335 334 333 333 334 334 335
292 298 298 299 296 303 307 307 306 306 306 307 308 309 311 312 312 312 312 313 313 315 326 331 333 334 333 333 334 334 334 335
290 296 298 295 296 301 304 305 305 305 306 307 307 308 310 311 312 312 312 313 313 313 318 328 330 329 330 332 333 334 333 334
292 297 296 295 296 298 300 301 301 303 305 306 308 311 310 312 312 312 312 313 313 313 317 329 329 328 328 330 332 332 333 335
290 294 293 291 291 294 296 297 300 302 303 304 305 305 308 309 310 310 311 313 313 314 321 327 329 327 328 327 328 330 333 336
287 292 293 291 290 293 297 297 299 300 302 304 305 304 307 308 308 308 309 312 315 317 325 327 328 326 324 325 325 326 328 330
290 287 282 290 282 290 294 295 296 297 298 301 301 304 306 306 306 307 309 317 323 326 328 329 328 326 327 325 324 323 326 327

GFSFLT1_sfc_thetae_045.txt.gz
Theta_e
309 300 296 298 306 308 314 317 316 317 320 319 320 327 328 336 341 343 347 348 350 356 355 354 353 352 351 350 349 348 347 346
304 300 302 303 310 313 312 316 318 319 315 320 328 329 332 341 342 342 345 346 349 355 355 355 353 352 351 350 349 349 348 347
300 300 305 310 311 313 310 313 315 321 317 319 328 334 340 342 342 341 343 346 346 355 354 354 354 353 351 350 349 349 348 348
295 299 304 309 312 312 311 313 317 320 317 321 330 335 340 342 344 343 344 347 345 353 354 354 354 353 351 349 349 349 349 348
299 299 301 305 312 310 312 314 317 322 316 322 325 335 341 342 343 344 344 346 346 348 352 353 353 352 351 350 349 349 348 347
300 298 300 309 312 314 314 314 320 322 317 318 324 337 342 341 341 340 342 343 343 347 348 347 348 353 352 351 350 349 348 348
300 300 302 309 308 314 316 314 316 319 320 322 330 338 338 338 338 338 337 339 341 340 347 347 346 348 352 351 350 349 349 349
305 306 305 308 310 311 312 312 313 316 321 322 324 329 331 334 334 336 338 339 338 340 343 346 342 347 349 347 346 345 344 346
307 307 309 308 309 312 310 309 314 313 316 320 321 323 323 325 331 336 339 340 340 340 342 343 342 342 346 348 347 348 347 349
312 311 310 307 311 310 311 312 316 318 319 319 320 321 322 324 325 327 332 337 342 342 340 343 342 341 342 343 345 344 344 349
312 313 313 315 314 314 315 319 321 322 322 320 321 322 325 325 326 327 328 331 335 343 344 344 344 341 342 342 342 344 343 345
309 312 313 311 311 314 315 319 318 317 318 319 319 320 322 324 325 327 330 331 334 336 348 345 343 344 342 343 342 342 342 343
306 309 309 310 307 308 314 315 314 314 316 317 319 320 320 323 329 329 329 333 336 337 338 346 346 345 343 342 341 341 341 343
302 302 305 306 300 309 313 312 311 313 315 316 319 320 322 324 326 329 330 331 336 328 329 341 345 345 343 341 340 340 341 341
297 303 302 302 300 307 311 311 312 314 314 315 316 318 323 323 323 329 332 334 333 334 329 338 344 343 344 344 340 341 342 341
294 300 301 300 300 305 309 308 310 311 312 313 314 316 320 322 325 328 331 334 334 331 333 337 340 343 342 342 342 342 342 342
296 301 300 299 300 303 306 307 307 308 310 312 314 317 320 322 325 326 331 332 335 332 335 333 336 336 338 337 340 341 342 344
295 298 298 299 298 302 303 304 306 308 309 311 312 314 317 320 323 327 330 332 335 333 332 334 336 340 341 341 338 338 343 344
291 295 298 296 294 298 302 304 305 307 308 309 310 311 315 317 322 325 327 331 331 332 333 336 340 340 340 340 339 338 340 341
292 291 288 296 287 296 300 301 303 304 306 307 309 310 313 316 320 323 325 325 327 334 336 337 340 340 340 338 337 339 340 343

GFSFLT1_sfc_thetae_048.txt.gz
Theta_e
308 305 301 304 308 312 317 320 320 320 324 324 325 331 329 338 343 346 350 353 348 356 355 354 354 353 352 351 350 350 349 348
306 303 306 308 314 314 318 319 321 322 318 325 331 331 334 342 342 345 347 350 353 355 355 354 354 353 351 351 350 350 349 348
303 303 308 311 313 315 316 316 318 321 320 321 330 337 339 342 341 343 344 347 351 356 355 355 355 354 352 351 350 350 350 349
300 303 308 311 314 314 315 317 319 321 323 323 335 337 338 341 342 342 344 347 347 356 355 355 355 353 352 351 350 350 349 349
301 303 305 309 314 312 313 316 319 326 321 326 331 336 340 342 345 345 347 349 349 351 354 355 355 353 352 351 350 349 348 348
303 301 302 309 312 313 314 316 324 327 320 322 331 340 343 342 343 345 346 346 348 350 348 348 348 355 353 352 351 349 349 349
305 303 305 309 310 315 318 318 321 323 324 327 334 339 338 337 337 339 341 347 348 346 348 347 343 345 353 352 351 350 350 349
310 310 306 309 311 313 314 315 319 320 325 325 330 336 334 334 334 335 337 342 346 349 348 348 343 347 351 347 347 345 343 343
312 312 310 308 310 314 313 313 320 319 322 323 325 327 330 332 334 335 339 341 345 350 350 348 346 344 346 347 346 347 346 349
314 315 311 308 311 312 313 314 320 320 322 324 325 326 327 328 329 332 335 338 344 350 351 351 347 345 346 344 347 346 347 353
315 315 315 315 311 313 314 318 320 321 322 324 325 326 329 329 329 331 332 334 337 344 353 352 353 348 349 350 346 348 348 349
312 312 314 311 313 315 317 322 321 322 323 324 323 324 326 328 329 331 333 335 337 340 351 354 354 356 352 351 349 347 347 347
310 312 310 314 309 310 316 318 319 320 321 322 323 325 325 328 329 331 333 337 339 342 346 352 354 354 353 349 349 346 346 351
305 308 310 310 303 312 317 317 316 318 320 320 322 324 326 328 330 333 336 336 339 335 336 345 351 350 348 346 346 346 347 348
300 307 307 305 304 312 315 315 316 317 318 319 321 324 327 328 329 331 335 337 336 341 339 341 349 344 349 353 347 346 347 347
297 304 305 303 303 309 313 312 314 316 317 318 320 321 324 326 328 330 332 336 344 343 347 344 340 344 343 345 346 346 346 347
300 303 302 303 303 306 310 311 312 314 315 316 318 321 323 324 326 328 332 337 344 342 349 342 336 338 340 341 345 345 347 349
299 301 302 301 301 306 308 309 312 312 314 315 317 319 321 323 325 327 331 336 342 343 346 343 339 343 343 344 344 347 348 350
294 299 302 300 299 302 307 310 311 312 313 314 315 315 318 320 322 324 327 334 336 342 344 345 344 345 347 348 346 344 346 347
294 295 291 300 290 300 304 305 307 310 311 313 314 316 317 318 320 324 326 328 333 338 342 343 347 349 351 343 341 343 346 348

GFSFLT1_sfc_thetae_051.txt.gz
Theta_e
309 307 303 306 312 313 318 323 323 322 326 325 325 331 331 339 342 343 349 353 352 357 357 358 357 355 353 352 351 352 352 352
306 304 309 310 313 315 318 323 324 324 321 326 333 334 336 341 341 343 346 350 355 356 356 356 356 355 354 353 352 351 351 351
304 305 310 313 314 318 317 322 322 324 322 324 331 336 340 339 338 340 343 348 356 356 356 356 355 354 353 353 351 351 351 350
301 303 309 313 315 315 317 322 322 322 323 326 335 337 338 337 338 340 342 347 355 356 356 355 355 354 353 352 351 350 350 350
303 303 307 311 316 314 316 319 320 325 321 329 332 337 339 336 337 339 342 344 356 356 354 356 355 354 353 352 350 350 350 349
307 304 305 311 313 315 316 317 324 327 322 325 332 338 338 336 337 339 341 343 346 356 349 348 349 355 354 352 352 350 350 350
307 307 308 312 311 315 318 316 319 326 328 330 334 339 337 334 335 336 337 341 346 348 349 347 345 348 353 353 352 351 350 350
313 313 311 312 312 313 314 315 317 323 326 328 334 335 333 332 332 334 335 338 343 347 349 349 343 348 351 346 347 346 344 345
314 316 315 312 312 315 313 313 318 320 325 327 328 333 331 331 333 334 336 338 343 354 355 350 346 343 348 349 347 348 349 350
314 316 317 313 313 312 314 315 320 324 327 327 326 328 332 333 333 335 337 339 343 349 358 360 350 346 346 346 350 348 348 354
315 315 316 317 314 314 314 318 320 321 325 325 326 328 331 332 333 334 334 337 339 345 362 363 362 350 351 352 348 350 350 355
313 314 315 314 313 314 318 320 319 319 320 323 324 328 330 331 332 334 335 336 338 340 361 360 359 362 359 359 352 350 349 353
308 311 311 315 309 310 317 319 319 320 321 323 326 328 328 329 332 333 335 337 344 349 351 364 361 359 359 352 353 349 349 359
305 308 310 310 304 312 316 316 317 318 320 322 325 326 328 329 331 335 336 342 346 338 342 360 360 358 354 350 350 348 350 352
301 307 307 306 305 312 316 316 316 318 319 320 322 325 330 328 330 333 337 342 342 347 339 349 358 350 352 357 348 346 347 348
298 304 306 304 304 309 313 313 315 317 319 320 322 323 327 330 332 334 338 345 349 345 351 356 348 354 343 341 344 347 347 348
299 304 303 302 304 306 310 311 312 315 317 319 321 325 327 329 330 331 339 343 346 344 353 348 340 337 336 339 343 345 348 353
298 301 302 303 302 306 309 310 312 313 315 318 319 322 324 326 328 334 338 341 345 347 352 353 343 346 342 346 343 347 348 353
294 298 301 301 299 302 307 310 312 313 315 317 318 319 321 323 327 328 334 339 340 347 352 355 352 348 351 350 351 346 348 349
294 292 289 300 291 300 304 306 309 311 313 315 316 318 320 322 326 329 331 332 339 344 350 352 358 347 354 345 343 345 348 349

GFSFLT1_sfc_thetae_054.txt.gz
Theta_e
307 303 300 302 311 311 314 321 322 321 324 323 324 332 334 340 341 354 350 347 353 359 358 357 356 355 354 355 356 357 358 356
303 301 306 308 311 314 314 318 324 323 320 327 335 334 337 339 339 350 349 345 356 358 358 357 356 355 353 353 353 354 355 354
301 302 307 311 314 314 314 318 320 322 320 323 333 338 338 339 341 343 347 346 354 356 357 357 357 356 354 353 352 352 352 352
299 303 307 311 314 314 314 317 322 321 321 324 333 336 336 338 341 341 344 350 355 356 356 356 356 355 353 353 352 352 352 352
301 302 305 308 314 311 313 315 317 324 319 326 331 335 338 336 340 340 344 354 354 353 354 356 355 354 353 352 352 351 350 350
306 304 304 311 312 314 312 312 321 325 317 322 333 337 337 333 336 338 342 354 355 353 349 349 351 355 353 352 351 350 350 350
306 306 308 313 311 315 317 313 316 319 323 330 335 335 335 331 332 335 338 348 355 352 349 346 345 350 354 353 352 351 351 351
312 312 311 313 313 313 312 312 313 317 325 329 333 335 332 329 329 332 334 338 347 352 349 345 341 346 349 349 349 348 346 345
312 314 315 313 313 315 312 310 313 316 320 327 328 333 331 330 330 331 334 336 342 352 351 347 344 346 349 346 345 345 344 343
313 315 314 313 317 315 314 313 317 318 323 326 327 329 331 331 331 333 334 337 346 353 355 353 350 346 351 349 347 344 344 344
311 313 314 315 313 314 315 317 318 319 320 324 328 329 333 335 334 339 330 332 341 354 357 360 361 358 351 349 350 348 347 346
308 309 312 311 312 314 316 320 319 320 319 321 326 326 330 334 338 348 349 352 347 355 360 361 358 359 362 360 352 353 351 350
305 306 307 310 307 309 316 318 318 319 320 320 322 326 327 331 338 343 346 359 348 354 365 363 361 361 358 356 354 350 352 357
303 305 307 306 300 309 314 315 316 317 319 321 322 323 327 332 340 343 344 345 349 338 355 363 361 359 357 354 353 354 353 355
297 305 304 304 301 309 313 313 314 317 318 319 321 324 329 331 334 340 344 347 347 351 351 360 362 359 359 357 358 355 352 354
294 299 302 302 302 307 310 310 312 315 318 319 320 322 326 332 332 340 344 346 350 349 355 359 358 358 352 350 348 349 349 352
297 300 298 299 302 305 309 310 309 312 316 318 320 325 326 328 331 339 344 341 343 346 349 352 346 345 342 341 341 344 347 354
296 299 298 298 297 303 307 309 311 311 313 315 318 322 325 331 338 337 343 345 347 346 347 349 347 347 347 346 342 344 351 354
292 296 297 296 294 299 304 308 310 312 315 316 316 318 324 325 332 338 337 340 342 346 347 349 348 348 350 350 352 352 354 354
293 291 287 296 287 297 301 304 307 309 312 315 316 318 320 324 331 335 337 340 344 345 344 346 349 347 345 340 338 344 351 350

GFSFLT1_sfc_thetae_057.txt.gz
Theta_e
300 293 293 293 302 305 309 313 317 315 319 320 323 329 326 341 341 342 344 347 352 358 357 356 356 358 359 359 360 360 360 358
295 292 297 301 305 307 309 313 319 318 316 324 333 331 333 348 343 341 340 346 356 357 357 356 355 355 357 358 359 359 358 357
292 294 300 305 308 308 307 308 316 318 316 321 331 334 346 346 345 340 338 347 354 357 357 357 355 354 354 355 356 357 357 356
291 297 303 306 308 306 306 307 315 315 316 319 331 331 335 344 343 342 338 348 351 357 356 355 355 353 352 352 352 354 354 354
296 298 302 305 308 305 305 305 309 315 315 319 327 332 333 337 341 342 345 347 347 351 354 356 355 353 352 351 351 351 351 351
305 302 301 308 310 306 305 307 314 316 313 316 328 331 333 335 333 341 347 347 345 346 350 349 350 354 353 352 351 350 351 351
303 304 306 310 309 314 314 310 311 314 324 328 332 331 328 327 328 342 347 346 346 344 345 345 346 350 352 352 352 351 350 351
308 309 308 310 310 311 310 309 309 311 322 329 331 329 324 325 326 335 344 346 346 345 342 340 344 344 344 345 345 345 343 342
306 310 311 310 311 314 311 306 308 309 313 324 327 327 328 324 325 330 343 347 347 345 342 339 338 341 344 343 343 343 341 339
306 309 309 308 312 311 312 312 314 315 315 315 318 324 326 328 324 326 334 342 347 345 341 337 337 341 342 340 340 340 341 338
306 307 308 310 308 309 311 315 318 318 316 315 317 321 324 325 328 328 328 336 337 344 341 339 337 342 342 341 340 339 339 339
303 303 305 305 306 308 311 315 316 317 316 316 316 320 320 325 327 328 327 328 334 334 347 344 342 342 343 343 343 341 340 340
300 301 300 303 301 303 309 313 314 315 316 317 317 318 320 321 325 327 330 330 333 332 331 348 344 344 346 348 343 344 343 343
295 300 302 300 293 303 308 309 310 314 315 316 317 317 319 322 325 331 330 331 335 339 345 349 349 348 346 345 346 344 342 345
291 297 298 298 295 302 306 306 307 309 311 316 316 317 317 321 323 329 329 330 329 339 352 352 350 349 347 346 344 344 344 344
289 293 294 293 294 299 304 305 305 308 310 314 315 316 318 319 323 325 328 330 331 333 347 351 351 348 347 346 346 345 346 344
293 296 293 292 293 296 300 300 302 305 306 308 314 317 318 319 322 324 331 332 333 332 338 338 331 336 336 336 336 337 338 340
293 296 294 292 292 295 297 298 300 301 305 306 309 314 318 319 319 321 326 327 330 330 332 333 333 331 331 331 332 332 333 338
289 293 294 292 289 292 297 299 301 303 304 307 308 310 312 314 316 323 326 327 328 329 331 333 332 334 334 332 332 334 337 338
291 288 282 291 281 289 293 295 298 300 302 304 305 309 311 313 314 324 326 328 328 330 331 332 332 331 332 332 330 329 336 341

GFSFLT1_sfc_thetae_060.txt.gz
Theta_e
299 292 288 291 298 300 305 308 308 309 317 321 321 329 332 336 336 341 346 349 350 357 358 360 361 360 360 360 360 360 360 357
295 292 296 297 302 303 305 307 308 312 314 324 328 331 334 337 337 339 344 345 353 356 356 359 360 360 360 360 360 360 360 358
291 294 298 302 303 303 302 304 306 309 314 321 327 338 337 335 335 336 339 342 352 356 355 357 359 359 359 359 359 360 360 358
291 297 302 303 305 303 303 304 306 308 314 320 333 339 336 334 332 334 337 344 350 355 354 354 355 357 357 358 358 359 359 357
296 297 300 305 307 305 304 303 305 309 312 319 329 340 339 333 332 332 340 345 348 350 352 354 352 353 355 355 355 356 356 355
300 300 302 310 310 307 306 308 311 315 316 315 323 336 339 337 333 334 342 342 346 348 348 347 347 353 352 352 352 353 353 353
302 304 306 311 308 313 315 311 310 311 323 326 329 329 331 333 337 339 341 339 342 345 345 346 346 348 351 352 351 351 350 351
306 309 307 309 310 311 311 311 311 311 316 325 327 328 328 330 334 337 339 341 339 343 344 343 346 345 344 344 344 343 342 342
304 306 307 307 308 312 309 307 311 310 311 314 316 321 324 326 335 338 341 342 341 338 340 340 340 343 342 341 341 340 339 338
304 306 305 304 308 307 309 309 314 316 315 313 315 314 318 322 332 336 340 342 342 339 337 336 336 340 340 339 339 340 339 337
301 302 304 307 306 307 307 311 314 316 316 314 314 314 319 326 324 325 335 341 343 340 337 334 333 336 337 336 336 336 337 337
298 299 300 301 303 305 306 311 311 313 314 315 315 315 318 325 327 325 330 341 342 340 338 334 333 335 337 337 336 334 336 336
296 297 297 301 298 299 305 308 308 309 312 315 316 316 315 320 325 326 330 335 341 341 340 336 335 338 339 339 339 337 336 337
293 296 298 298 293 301 305 304 304 307 310 311 314 315 316 317 324 325 327 331 334 342 338 340 338 339 340 341 340 340 339 339
289 295 295 295 292 298 302 303 303 304 307 310 311 313 315 317 319 324 326 329 333 333 334 341 343 341 341 342 341 341 341 341
287 293 293 291 291 295 298 298 298 300 302 306 309 312 315 317 317 321 325 326 332 334 337 338 341 345 343 342 341 339 342 342
290 295 292 291 291 294 296 296 296 298 299 301 304 313 317 316 317 317 323 325 325 326 337 343 343 340 340 341 341 342 342 341
290 293 292 290 291 294 296 295 296 297 298 299 302 305 309 315 315 315 320 326 327 329 340 345 344 343 338 341 336 340 342 340
288 292 291 289 287 290 294 295 297 298 299 299 300 303 306 309 316 317 318 326 329 330 339 344 342 338 328 329 328 329 330 330
290 287 280 289 280 287 291 292 295 296 295 296 299 301 303 306 309 311 318 324 328 329 335 337 334 332 329 325 322 325 324 332

GFSFLT1_sfc_thetae_063.txt.gz
Theta_e
298 290 289 290 296 297 302 304 304 303 309 312 319 328 329 331 335 338 341 346 350 360 361 361 361 360 359 359 359 359 358 357
295 293 296 296 299 300 302 305 304 305 305 322 327 332 333 333 335 338 341 344 354 358 359 361 361 360 359 359 359 359 359 357
292 295 298 301 302 301 301 302 304 305 305 318 327 336 333 332 336 335 340 341 350 356 358 360 361 360 359 359 359 359 359 357
292 297 301 303 304 302 301 303 306 304 308 318 334 333 331 332 332 337 338 341 346 355 356 357 359 359 358 358 358 359 358 358
295 298 300 303 307 306 305 304 305 309 306 316 332 335 330 328 329 333 336 341 344 347 352 357 357 358 358 357 357 357 357 357
299 299 299 308 308 306 305 308 314 311 308 315 324 336 331 328 327 332 335 339 341 344 346 346 350 357 357 357 357 357 357 356
299 302 302 309 305 311 313 310 311 311 312 319 334 334 331 330 333 334 336 336 341 343 343 342 342 350 355 357 357 356 356 355
306 308 307 309 307 308 308 308 309 312 315 317 329 329 329 327 326 329 330 334 339 341 342 340 343 341 343 344 347 347 347 347
303 305 306 305 306 308 305 303 307 309 312 315 318 322 323 326 329 329 332 335 338 341 341 340 339 340 342 338 338 338 337 337
301 304 304 302 306 305 306 306 311 311 312 313 313 313 316 320 325 332 332 334 336 339 339 339 337 340 339 338 337 337 336 335
299 299 299 303 302 303 303 308 310 311 312 312 313 313 315 323 323 329 333 335 336 335 336 337 334 337 336 336 336 336 335 335
296 296 298 298 299 301 303 307 307 308 308 310 312 313 318 322 322 323 332 338 339 337 334 333 332 333 333 334 333 333 335 335
294 296 296 300 295 297 303 305 305 305 307 308 310 313 316 318 323 324 325 338 341 339 336 331 329 330 331 332 332 332 332 333
291 295 296 297 291 299 301 301 301 303 304 306 307 311 313 316 320 324 325 333 341 343 338 334 332 332 333 334 334 334 333 333
289 294 293 294 288 295 299 298 298 299 300 302 303 305 310 316 318 320 323 327 333 339 338 336 334 334 335 337 337 337 337 336
286 291 293 291 290 294 297 297 297 298 298 300 301 303 306 311 317 318 321 324 328 335 338 338 337 338 337 339 339 338 339 339
288 292 289 289 290 292 295 295 295 296 297 298 300 304 306 308 313 316 320 320 324 327 329 334 338 337 337 337 339 340 341 341
288 292 290 289 289 293 293 294 295 295 296 297 298 300 303 305 307 309 314 320 323 326 329 332 334 339 336 339 338 341 341 339
286 291 290 288 286 289 293 294 295 296 296 297 297 298 300 302 303 305 309 313 321 323 325 329 337 334 328 331 329 331 331 333
288 285 279 288 278 286 289 291 293 294 294 295 296 298 298 300 301 301 304 307 317 323 324 327 337 337 333 333 333 330 331 331

GFSFLT1_sfc_thetae_066.txt.gz
Theta_e
297 289 288 288 294 297 299 303 301 301 306 305 314 326 328 329 334 331 340 350 355 361 361 361 360 359 358 359 358 358 357 357
294 291 296 296 296 298 301 303 303 302 302 310 326 330 331 332 333 331 339 347 354 360 361 361 361 359 359 359 359 358 358 357
294 295 298 300 300 301 299 301 302 304 303 306 325 333 331 332 332 330 338 343 351 360 360 361 361 360 359 359 359 358 358 358
291 297 300 302 303 301 299 303 305 307 306 311 334 330 328 332 330 333 337 340 350 358 359 359 360 359 358 358 358 359 358 358
295 298 300 303 305 303 303 303 306 309 304 311 320 328 327 326 331 334 336 339 345 351 356 359 358 358 358 357 357 358 357 356
296 298 298 307 308 307 306 307 312 312 306 306 324 328 328 330 331 330 333 338 340 343 349 352 354 358 358 357 357 357 357 356
299 300 301 307 306 309 312 309 308 311 311 313 333 331 327 327 331 331 334 335 337 339 340 343 347 353 357 358 358 357 357 356
304 306 305 307 306 306 306 306 306 309 312 316 330 328 325 324 324 327 329 334 337 338 339 339 345 345 349 350 353 353 353 351
303 305 305 303 303 306 303 302 305 304 308 311 315 323 327 326 324 326 327 334 338 338 338 339 338 338 341 342 341 342 342 343
301 303 299 300 303 301 302 303 308 308 309 309 310 311 315 325 328 329 327 332 335 340 339 338 337 337 339 340 339 338 338 337
297 297 298 299 298 299 300 304 307 307 307 307 308 310 313 319 324 330 329 331 333 337 336 336 334 337 337 337 337 337 336 336
295 296 297 297 298 299 301 305 305 306 305 305 306 309 312 318 324 322 331 331 334 333 335 335 335 333 335 335 334 335 335 334
293 295 295 298 294 295 301 304 303 303 304 304 305 306 309 315 318 325 325 334 336 334 334 332 332 331 332 334 333 332 333 334
288 293 295 296 289 297 299 300 299 301 302 302 302 304 305 309 312 315 323 327 339 340 336 332 331 331 331 331 330 331 330 331
287 291 292 292 289 296 298 298 298 299 300 301 301 303 304 306 309 312 316 321 332 339 338 335 332 330 330 331 331 331 332 332
284 289 290 288 289 293 296 296 296 298 299 300 301 302 304 306 307 310 313 316 323 336 339 337 336 333 331 331 333 334 335 335
286 290 289 288 289 291 294 294 294 295 297 298 300 304 306 306 307 307 311 312 315 325 334 336 334 331 332 332 335 336 337 338
287 291 289 288 288 291 292 293 294 295 296 297 299 301 303 305 304 304 305 308 313 316 324 332 336 337 336 336 336 337 339 340
285 289 289 286 284 286 291 293 294 295 296 297 297 297 300 302 303 303 303 305 309 313 316 324 332 333 332 332 332 334 335 339
287 284 278 286 276 283 287 289 291 293 292 294 295 298 302 304 305 304 303 304 304 310 314 317 326 331 332 335 333 334 337 338

GFSFLT1_sfc_thetae_069.txt.gz
Theta_e
307 302 295 297 301 305 307 310 308 309 312 311 314 329 323 338 338 339 349 356 360 361 361 361 360 359 357 357 357 357 357 357
301 297 299 300 305 307 307 310 310 311 310 315 334 332 339 338 337 338 345 353 360 360 361 361 361 359 358 358 358 357 357 357
299 298 301 304 307 309 307 308 311 313 312 314 323 339 338 339 336 337 343 350 358 360 361 361 361 360 359 358 357 357 357 357
298 299 303 305 310 309 308 310 313 314 312 316 327 336 336 337 335 338 344 349 355 360 360 360 360 359 358 357 357 357 357 357
301 301 303 306 310 310 311 312 312 316 311 317 320 334 335 336 335 338 344 347 354 357 360 360 360 358 358 358 357 357 356 356
302 300 301 308 312 314 312 311 317 317 311 312 320 334 335 336 336 337 341 343 350 354 354 356 357 359 358 358 358 358 357 356
301 300 303 310 309 313 316 312 313 315 315 317 321 335 332 333 334 334 336 342 346 349 352 353 353 356 358 358 358 358 358 357
306 307 305 309 309 310 309 310 310 312 315 317 318 330 330 330 329 332 332 338 343 348 350 352 350 355 356 355 356 356 356 357
306 308 309 308 307 309 307 305 310 308 311 313 315 318 325 328 331 329 333 336 341 347 350 349 346 350 352 353 354 355 356 357
305 307 305 304 305 303 305 307 309 310 311 313 313 315 317 321 330 332 332 334 340 344 347 348 346 346 348 349 352 351 352 355
302 302 301 301 300 302 303 307 308 310 310 311 312 315 318 323 327 331 334 335 338 342 346 346 347 343 345 348 347 348 349 351
300 301 301 299 300 301 304 306 306 307 309 310 310 311 316 320 327 334 332 337 338 342 346 345 345 346 344 345 344 344 345 346
298 299 299 301 296 298 303 305 305 306 307 307 308 310 311 314 319 323 329 333 340 342 343 344 342 345 343 342 341 340 340 343
296 297 298 299 293 299 301 301 302 303 305 306 308 309 312 314 317 321 325 330 335 341 341 344 341 340 340 341 340 339 339 340
292 298 297 296 293 297 301 301 301 302 304 304 306 309 313 314 315 318 321 326 328 338 345 343 342 340 340 341 340 339 339 339
290 294 297 295 294 297 299 299 300 301 302 303 305 307 311 313 315 317 320 323 324 333 344 350 345 341 338 337 337 339 339 339
292 295 295 294 294 296 298 299 298 300 301 303 304 308 310 312 314 315 319 321 322 324 331 344 344 341 339 335 337 337 339 340
293 295 294 293 292 296 297 298 299 300 300 302 303 305 307 310 312 316 318 321 322 323 326 332 341 345 344 344 342 341 341 343
290 293 294 292 290 291 296 298 299 300 302 302 302 303 306 309 313 315 316 319 320 321 324 326 332 340 346 346 346 343 343 342
290 289 285 292 282 290 293 294 296 298 301 301 302 304 307 309 310 312 313 315 318 322 322 324 327 334 344 338 338 342 344 345

GFSFLT1_sfc_thetae_072.txt.gz
Theta_e
311 307 302 303 307 309 311 313 313 314 318 315 318 328 333 343 345 343 351 356 357 360 360 361 360 360 361 361 362 362 362 362
305 304 307 303 309 310 310 313 314 316 315 320 327 330 340 345 344 342 349 353 361 360 360 361 360 359 359 360 360 361 361 361
304 305 306 306 309 310 310 311 312 317 315 319 326 335 344 345 344 341 346 350 362 359 360 361 361 360 358 358 358 359 359 359
303 305 306 308 309 312 311 313 313 316 317 320 327 332 342 343 343 341 344 350 359 361 360 360 360 360 358 358 357 357 357 357
305 305 306 308 314 312 312 314 313 319 315 321 323 332 341 342 341 340 344 348 356 360 362 360 360 359 358 358 357 357 356 356
307 305 305 310 312 315 315 313 320 320 315 317 322 331 338 342 338 338 343 345 352 356 357 359 359 360 359 358 358 357 357 357
305 306 308 312 310 315 319 316 317 318 319 321 323 325 329 337 337 336 339 343 348 348 351 354 352 357 358 358 358 358 358 357
310 311 310 312 311 312 311 312 314 317 320 321 321 322 322 328 337 334 335 339 343 347 349 350 346 354 357 356 356 355 353 355
309 311 313 311 312 315 309 307 312 313 315 317 318 320 320 322 330 335 335 337 342 349 352 350 347 348 351 350 352 353 355 356
309 310 310 309 312 310 312 310 312 314 315 316 317 318 319 321 324 332 336 336 339 347 352 354 349 348 350 347 350 350 353 359
307 308 309 309 308 308 309 312 311 312 314 314 315 317 320 321 325 330 334 339 339 343 350 353 353 347 349 350 348 351 351 357
305 305 306 304 305 306 307 309 307 311 310 312 314 315 317 320 325 332 335 335 339 343 350 350 352 353 349 350 349 349 349 350
302 303 303 305 301 302 308 308 308 314 311 312 313 314 314 317 321 323 327 332 336 342 347 352 349 349 350 346 346 344 345 350
301 301 303 302 296 303 305 306 306 307 312 314 312 313 314 316 319 322 324 328 333 337 343 350 353 350 346 343 343 342 344 346
296 301 300 300 297 304 305 305 303 303 307 309 309 312 315 315 316 320 323 325 326 332 340 347 351 349 349 351 345 342 342 341
294 299 300 299 299 303 304 304 303 303 304 307 308 310 312 315 317 319 326 331 328 328 338 349 349 350 346 343 343 342 340 341
296 299 297 298 298 301 304 304 303 303 303 305 307 310 312 314 317 318 323 326 330 330 337 340 344 340 343 343 346 343 343 345
297 298 298 297 297 300 302 303 304 304 304 304 306 308 309 312 316 320 322 324 325 328 331 333 336 349 348 348 346 347 346 347
293 297 298 297 295 298 300 302 303 305 306 305 305 305 307 311 316 318 319 321 322 326 328 331 333 335 342 344 346 345 348 347
294 293 289 297 287 295 298 299 301 304 305 305 305 306 309 311 313 316 317 319 322 325 328 328 331 333 340 336 338 340 345 348

GFSFLT1_sfc_thetae_075.txt.gz
Theta_e
312 309 306 307 312 312 315 315 315 315 319 318 320 329 331 340 347 342 354 354 355 361 361 363 364 364 363 363 363 363 363 363
307 305 311 313 314 312 313 315 315 316 315 321 328 329 338 345 347 344 349 354 358 359 360 362 363 363 363 363 363 363 363 363
308 307 311 316 318 314 311 313 314 316 315 319 327 333 340 346 346 345 347 352 359 359 359 360 362 361 361 362 362 363 363 362
304 307 311 312 312 315 314 314 315 313 316 320 330 329 339 346 346 345 347 352 360 358 359 358 360 359 359 359 360 361 361 361
306 307 310 312 315 312 315 315 315 318 314 322 326 327 338 345 344 345 347 349 360 356 359 359 359 359 358 358 358 358 358 357
308 306 307 315 314 315 313 315 321 321 314 318 324 327 331 341 342 343 344 346 357 354 355 355 356 360 359 358 358 358 357 357
305 307 309 315 313 316 317 316 319 320 319 323 325 326 327 332 340 339 341 345 351 350 352 353 351 356 358 358 358 357 356 357
310 311 311 313 314 314 314 313 314 316 321 324 323 323 323 325 332 337 338 342 346 349 350 350 346 354 355 353 352 351 350 352
311 312 313 312 313 316 313 310 314 313 318 320 321 322 322 323 327 336 338 340 342 352 358 350 346 347 351 348 349 351 353 356
311 312 312 310 313 313 314 315 317 317 320 320 319 320 320 322 324 331 338 337 341 347 354 358 348 345 349 346 349 349 350 362
310 310 310 311 310 311 312 316 319 317 316 318 320 319 320 322 324 329 333 339 339 345 354 358 362 350 350 351 346 349 350 357
307 308 308 307 308 309 311 315 315 314 313 316 320 318 318 319 323 329 336 337 342 341 355 354 357 363 359 358 351 349 349 353
305 306 305 308 303 304 310 312 312 312 313 316 319 317 316 318 322 326 331 337 339 344 351 354 356 355 357 350 350 349 349 361
303 305 305 305 298 306 310 310 309 310 311 316 317 316 316 317 320 324 325 326 335 338 344 354 355 354 350 348 349 347 348 350
300 304 303 303 299 305 309 309 308 309 311 311 316 319 318 317 318 320 324 327 329 337 340 348 356 352 354 355 349 344 346 343
297 302 302 300 300 305 308 307 307 308 309 310 314 319 317 317 318 319 325 330 332 335 339 342 351 355 352 349 348 348 345 345
300 303 300 299 300 303 306 307 306 307 308 309 312 316 316 317 317 323 324 328 329 330 338 340 342 345 347 344 347 346 346 350
299 302 301 299 299 303 305 306 307 307 308 309 310 312 313 314 316 319 323 326 325 326 332 336 339 346 345 350 351 350 349 350
296 300 301 299 297 300 304 306 307 308 309 310 310 310 313 313 315 319 319 321 324 326 330 333 336 337 340 346 348 346 349 352
296 295 291 300 290 298 302 302 304 305 306 308 309 310 311 313 314 317 317 319 322 326 328 332 340 337 342 335 332 338 340 348

GFSFLT1_sfc_thetae_078.txt.gz
Theta_e
309 306 303 306 312 311 315 315 314 314 318 317 319 326 331 341 344 355 352 355 359 362 364 365 365 364 363 362 362 362 362 363
305 302 309 311 314 315 313 315 316 315 313 321 328 328 334 342 344 345 352 350 359 361 363 364 365 364 363 363 362 362 363 363
305 305 309 312 315 318 311 312 314 315 312 318 327 330 336 343 344 344 350 350 358 360 362 364 364 364 364 364 363 363 363 363
301 304 310 313 315 317 315 315 314 313 313 317 328 326 332 343 344 345 348 353 358 359 361 361 362 362 362 362 362 362 363 362
304 304 307 311 315 311 312 313 315 318 313 320 323 326 329 341 343 347 348 357 358 355 358 361 360 360 360 360 360 360 360 359
304 305 305 313 314 315 313 312 321 321 313 315 323 326 327 330 341 343 344 356 358 353 352 354 356 359 359 359 359 359 358 358
302 304 307 313 312 317 318 314 318 320 320 322 325 324 324 326 338 338 341 354 355 348 351 351 351 355 358 358 358 358 357 357
308 309 308 311 312 314 313 313 314 317 322 324 324 322 321 321 324 337 338 343 352 347 349 350 346 355 353 352 353 352 351 354
309 311 311 310 310 314 312 311 314 315 319 322 322 322 320 319 323 329 341 342 349 349 352 349 346 354 351 351 350 350 350 352
309 311 310 309 312 310 311 313 318 319 321 320 321 322 320 318 319 325 336 343 349 352 354 352 348 351 352 347 349 349 349 353
309 309 309 310 308 308 309 314 317 319 318 319 319 322 327 325 320 323 334 341 345 351 359 359 363 361 354 346 349 349 351 353
307 307 308 306 306 307 310 314 315 316 316 317 317 317 320 323 328 333 338 342 341 354 357 359 363 367 366 362 349 351 351 351
304 305 304 306 302 303 309 311 310 312 314 316 316 316 316 323 328 333 331 338 341 344 355 354 355 361 362 360 357 359 354 360
302 304 305 304 297 304 309 309 308 309 311 313 315 316 322 323 327 330 332 332 338 337 346 355 356 356 357 356 357 356 356 361
299 305 304 303 298 304 308 308 308 309 311 311 313 318 324 322 325 324 328 331 334 339 342 354 351 355 354 353 352 353 353 353
298 302 303 300 300 304 306 306 307 309 309 310 312 314 322 321 323 326 329 334 336 337 340 345 351 351 351 351 350 349 346 347
300 303 301 300 300 302 305 306 306 307 309 310 312 315 318 321 322 325 330 332 333 337 338 341 345 345 346 346 347 347 348 345
298 301 300 299 298 302 304 305 307 308 309 310 311 313 317 321 321 324 328 332 333 332 337 335 342 345 345 347 350 350 346 345
295 299 301 299 296 299 303 305 307 308 310 311 311 311 314 318 319 322 327 329 331 334 333 337 337 337 336 336 340 343 347 345
297 295 290 299 289 297 301 302 305 306 308 309 310 312 314 315 318 321 323 328 328 330 331 332 339 339 338 334 328 330 336 339

GFSFLT1_sfc_thetae_081.txt.gz
Theta_e
302 296 294 299 306 308 309 310 309 308 314 316 318 327 328 339 347 350 350 351 360 364 364 363 363 362 361 361 361 361 362 362
298 296 302 304 306 309 310 309 311 310 309 320 326 326 331 339 348 349 348 351 361 363 363 363 363 362 361 361 361 361 362 362
295 298 304 309 309 311 310 307 310 312 309 316 323 328 337 338 342 346 347 353 357 362 363 364 364 362 362 362 361 362 362 362
293 298 305 308 312 313 314 312 313 311 312 315 320 321 325 338 336 344 344 353 355 362 362 363 363 362 361 361 361 362 361 361
298 300 303 307 311 311 313 314 314 313 310 315 317 318 319 334 335 344 347 351 352 356 360 362 362 361 361 361 361 360 360 359
299 299 299 308 307 308 308 314 320 319 310 309 316 318 319 322 332 347 349 350 349 352 356 354 357 361 360 360 360 360 360 359
297 299 302 307 305 310 313 311 314 317 317 320 321 319 317 318 318 342 350 348 347 348 349 349 352 357 359 361 360 359 358 357
302 304 303 305 306 306 310 309 309 313 319 323 320 316 315 314 314 319 348 348 346 345 346 345 352 352 350 355 354 352 352 351
303 305 306 305 306 308 306 305 309 310 314 319 319 315 315 315 314 313 328 347 344 344 346 344 343 349 347 347 345 345 347 347
304 306 305 304 306 306 306 305 314 315 316 317 317 313 313 315 314 318 322 341 341 343 344 344 344 347 345 345 343 342 341 344
304 303 302 305 304 303 304 308 310 316 317 316 315 315 314 316 316 319 328 335 337 344 343 343 344 347 344 343 344 343 342 344
300 299 300 300 300 302 305 308 307 308 313 314 314 314 314 315 314 320 327 331 333 342 345 345 352 352 350 344 341 344 344 345
299 299 298 301 297 299 304 306 305 306 309 312 313 315 313 313 314 320 323 326 331 338 346 346 346 346 348 348 345 342 345 345
295 300 301 298 292 300 304 303 303 305 306 307 311 313 312 313 320 319 321 322 325 333 332 346 346 348 349 347 346 345 345 346
294 300 299 298 294 301 303 303 301 302 304 306 305 309 312 319 318 318 319 320 323 326 331 346 346 346 345 346 344 344 343 349
292 297 299 295 295 299 302 301 301 301 303 304 306 307 315 317 316 317 319 323 325 329 330 337 346 345 344 343 344 341 342 341
295 299 295 294 294 297 300 300 298 299 302 303 305 307 311 316 317 319 321 320 321 328 328 329 341 341 342 341 342 340 340 339
294 297 296 293 293 296 298 298 299 300 300 302 303 305 309 314 316 318 320 321 320 322 327 327 332 337 341 343 343 342 341 341
291 296 296 294 291 294 299 300 301 302 303 303 303 303 308 312 312 316 317 318 319 321 323 325 327 328 327 330 337 339 341 340
294 290 284 293 283 291 295 297 300 301 303 303 303 306 307 309 311 314 316 316 316 318 320 323 325 326 327 324 322 331 331 340

GFSFLT1_sfc_thetae_084.txt.gz
Theta_e
299 293 293 297 302 303 308 308 307 307 315 317 320 327 330 341 347 353 355 359 361 364 362 362 361 360 359 360 359 360 361 361
297 295 300 301 305 306 310 310 310 311 310 319 325 327 335 346 347 349 352 357 362 363 362 362 361 360 360 360 360 360 361 361
294 296 301 307 309 307 308 309 310 313 311 313 319 333 341 345 346 345 347 354 361 363 363 362 361 361 360 360 360 360 361 361
291 297 303 306 309 307 308 311 310 311 312 313 318 316 321 345 344 344 346 354 359 362 360 361 361 360 360 360 360 360 360 360
293 296 299 305 308 308 309 309 312 314 309 312 314 315 317 333 344 343 349 351 356 358 359 359 360 360 359 359 360 360 359 359
295 296 297 306 306 306 307 311 319 318 308 307 314 316 316 321 341 342 348 349 352 355 356 355 356 361 359 359 359 359 359 358
293 297 299 305 301 306 310 310 313 318 315 318 317 316 315 315 343 344 347 347 348 352 354 354 355 359 360 361 360 359 359 358
299 300 299 303 303 304 307 308 308 310 316 319 316 314 313 311 318 342 343 344 346 348 350 352 355 355 356 356 357 355 355 353
300 302 303 303 303 305 306 304 308 308 312 315 313 312 312 313 311 323 346 346 344 344 346 349 350 351 352 353 351 350 350 347
301 303 302 301 305 303 304 306 312 313 313 314 312 312 312 312 313 324 339 346 344 343 342 341 348 348 349 349 346 345 347 345
301 301 301 303 302 302 303 306 309 312 313 313 313 312 312 314 314 329 332 339 340 343 343 341 345 343 345 346 345 344 342 343
297 296 296 297 298 298 302 305 305 306 307 311 312 313 312 312 312 317 329 331 337 341 342 341 345 343 341 342 342 341 341 342
295 296 295 297 295 297 301 303 302 303 305 308 312 313 313 313 312 316 320 328 336 341 342 340 344 345 343 341 343 342 341 341
293 297 298 296 291 298 301 300 301 303 303 308 310 312 312 313 312 315 318 325 329 347 344 342 344 347 346 345 341 342 343 342
291 296 296 295 293 299 301 300 300 300 301 302 305 308 311 312 313 316 318 319 322 327 335 343 343 347 346 343 343 342 343 343
289 294 294 292 292 296 299 299 299 298 300 301 302 304 309 315 316 316 315 317 323 326 328 335 342 343 343 342 343 342 342 345
292 296 292 291 291 294 297 297 297 297 298 300 301 304 313 314 315 317 318 319 322 321 323 326 340 339 336 336 339 341 341 342
292 295 293 291 291 294 296 296 297 297 298 298 299 302 307 311 313 316 316 316 319 321 322 323 328 332 335 335 337 340 342 341
289 293 293 291 288 291 296 297 299 299 299 299 299 300 303 310 313 314 316 316 316 318 319 319 323 326 327 326 334 335 334 339
292 288 283 291 282 288 292 294 297 298 297 298 300 301 303 310 311 314 316 315 316 318 319 319 320 318 320 322 322 327 329 333

GFSFLT1_sfc_thetae_090.txt.gz
Theta_e
297 292 293 296 300 299 304 308 307 306 314 315 316 324 332 339 351 354 354 356 357 362 361 360 360 359 358 358 359 359 359 359
296 293 298 300 303 303 304 307 309 309 310 316 319 324 336 349 353 352 354 355 360 361 360 360 359 359 358 358 359 359 359 359
292 295 301 303 304 307 304 304 308 309 308 311 316 341 344 349 351 351 353 354 359 361 360 360 359 359 358 358 358 359 359 358
289 295 301 303 305 304 305 306 308 308 307 308 314 327 340 347 347 351 351 354 356 360 360 359 359 359 358 357 357 358 358 358
290 294 297 302 305 301 302 305 305 309 306 308 311 313 338 342 345 349 353 354 355 356 358 359 358 358 358 357 357 357 356 356
293 294 295 302 302 302 301 304 312 311 306 305 310 317 336 338 340 344 351 353 353 354 355 354 355 359 358 357 357 356 356 356
291 294 297 301 298 301 305 303 305 308 310 314 315 334 335 334 337 342 347 351 352 352 354 354 353 356 358 358 358 357 356 356
295 296 297 298 298 300 300 301 301 305 313 313 313 321 334 334 332 338 341 347 350 351 351 351 354 353 353 353 355 353 352 352
296 298 299 298 298 300 299 298 301 302 306 311 311 312 331 333 334 336 340 346 350 349 351 350 351 352 352 352 351 351 353 352
296 299 297 297 300 298 299 301 304 306 308 310 310 308 316 330 334 337 340 343 348 350 348 350 350 352 352 350 350 349 349 349
295 294 295 297 296 296 296 302 304 305 305 309 310 309 309 310 316 333 339 342 344 348 348 349 348 350 349 348 349 349 349 349
294 294 294 293 295 295 297 301 302 302 302 304 307 309 309 310 312 323 339 341 343 345 347 347 348 347 347 349 349 348 348 349
292 294 293 293 292 293 298 299 299 300 301 302 302 305 308 311 313 324 335 341 341 342 344 345 345 347 346 347 348 347 347 348
289 292 295 294 288 295 297 296 296 298 299 300 302 303 305 310 312 322 325 336 340 343 341 341 342 343 344 345 346 347 345 344
288 292 292 291 287 295 297 296 295 296 297 298 298 301 304 307 310 313 321 327 333 339 339 338 339 340 341 341 341 342 341 340
285 291 290 289 288 293 295 294 295 295 296 296 297 299 302 303 307 310 313 323 328 335 338 339 338 337 340 339 339 339 339 339
289 293 289 289 289 291 294 293 293 295 296 296 297 299 302 304 308 308 310 313 321 327 332 335 336 336 338 337 337 338 340 341
289 292 289 288 288 291 292 293 294 295 296 296 297 298 301 301 307 311 310 311 314 322 328 336 338 339 337 338 339 340 340 341
287 290 289 288 286 289 293 293 295 296 296 297 297 297 299 300 301 306 311 312 315 318 322 328 333 329 326 330 333 334 336 339
289 286 281 287 282 285 289 291 293 295 294 295 296 297 297 298 299 301 308 312 316 318 321 325 329 330 328 329 328 330 331 335

GFSFLT1_sfc_thetae_093.txt.gz
Theta_e
309 304 300 303 306 308 311 314 314 315 320 320 321 326 337 347 353 353 358 360 359 362 361 361 361 360 360 360 361 361 361 360
304 301 303 306 308 310 311 314 317 315 316 324 325 328 342 352 354 354 356 358 361 361 360 360 360 359 359 360 360 360 360 360
302 301 304 308 310 310 309 311 313 315 313 319 322 346 351 353 354 352 355 357 359 360 360 360 359 359 359 359 359 359 360 359
297 300 304 308 310 310 309 310 312 311 312 316 321 339 350 354 354 352 355 358 359 360 360 359 359 358 358 358 358 359 359 358
299 299 301 304 310 308 307 308 310 313 309 318 321 324 350 353 354 353 355 357 359 357 359 359 358 358 357 357 357 357 357 357
300 298 299 306 308 309 309 307 313 313 309 311 319 326 347 350 352 351 354 355 357 357 355 354 356 358 357 357 357 357 357 356
298 299 301 306 306 310 310 308 310 311 312 315 321 334 342 343 346 348 349 354 355 355 356 354 353 355 357 357 357 357 356 356
302 304 303 305 304 305 305 306 307 309 313 316 322 333 336 339 340 343 345 350 353 355 355 354 351 355 355 354 353 353 352 353
302 304 305 303 303 306 304 303 307 306 309 313 314 321 336 340 341 342 345 349 351 355 357 353 352 353 354 353 354 355 355 356
302 304 303 301 303 302 304 306 309 309 311 311 312 314 318 337 341 342 343 347 351 355 356 355 354 353 353 352 354 353 354 355
301 301 301 301 301 302 302 307 309 309 309 310 312 315 320 327 339 343 344 347 350 353 355 356 356 354 354 353 353 353 353 354
301 301 301 299 301 301 303 307 307 308 309 310 312 315 319 320 322 330 345 348 350 352 355 356 356 358 355 355 354 354 353 354
300 302 301 300 298 298 305 304 305 306 307 308 310 312 315 320 324 325 336 348 349 351 353 354 354 356 356 355 354 353 353 353
298 299 300 300 295 301 304 303 303 304 305 306 309 310 312 315 321 329 331 342 350 349 351 352 351 353 353 353 353 353 353 352
295 299 298 297 295 302 306 304 303 305 306 306 308 311 314 314 316 323 328 337 347 351 349 351 353 352 352 354 351 352 352 351
292 297 298 297 297 301 304 303 303 304 306 307 308 310 313 314 315 317 323 331 341 349 351 349 348 349 349 349 349 350 350 351
295 299 295 297 297 300 303 302 303 305 306 308 309 312 313 315 316 319 321 325 333 341 350 348 345 343 343 342 344 346 347 349
296 298 297 297 296 300 301 302 304 304 306 307 309 311 313 315 316 317 321 325 327 331 341 347 347 347 346 346 346 346 347 347
293 296 297 295 295 297 301 301 303 305 306 307 308 308 310 311 314 316 318 322 326 328 334 343 348 347 346 348 347 345 345 345
294 293 289 295 287 296 299 300 301 304 306 306 306 307 310 312 313 315 316 318 323 327 330 333 345 346 346 342 340 343 346 347

GFSFLT1_sfc_thetae_096.txt.gz
Theta_e
314 311 309 311 313 314 315 319 320 319 326 326 326 333 342 350 351 352 356 360 361 362 362 363 363 363 362 362 362 362 362 362
308 307 311 312 314 315 315 318 320 320 318 328 334 335 347 352 352 353 355 357 360 361 361 362 362 362 362 362 362 362 362 362
306 307 309 313 315 315 314 315 317 319 315 321 331 349 353 353 353 353 353 355 362 361 361 361 361 361 361 361 361 362 361 361
302 305 308 312 315 315 314 315 316 315 316 320 328 341 352 354 355 354 353 355 360 360 360 360 360 360 360 360 360 361 360 360
303 304 306 310 314 313 313 313 314 317 313 321 325 329 350 355 357 354 354 355 359 357 358 359 359 359 359 359 359 359 359 358
304 302 302 310 312 313 312 311 316 316 315 317 322 328 338 353 354 352 352 352 358 357 354 354 355 359 358 358 358 358 358 357
301 302 304 310 309 313 314 312 313 315 316 319 321 332 335 344 351 350 348 351 355 355 354 353 352 355 357 358 358 358 357 357
305 307 306 308 308 309 308 309 310 312 316 319 319 324 332 337 343 347 347 348 352 355 355 354 350 356 354 352 351 352 352 355
306 307 307 306 307 309 307 306 310 310 313 316 317 320 324 333 337 344 348 349 351 357 359 356 351 352 351 350 350 349 351 354
306 307 307 306 308 306 306 309 312 313 314 315 316 318 319 324 337 343 347 350 352 356 359 360 353 351 352 349 350 349 350 354
306 306 305 306 304 305 306 310 312 312 313 314 315 317 320 322 327 339 343 349 353 356 359 359 359 353 354 353 350 352 352 354
305 306 306 303 305 306 307 310 310 311 312 313 314 316 320 324 326 332 342 347 353 356 359 359 358 360 356 355 354 353 352 353
305 306 304 306 302 302 308 310 308 310 311 312 314 315 317 320 325 330 330 338 352 357 359 359 359 360 360 356 354 353 354 358
303 303 304 303 298 305 308 307 307 308 309 310 312 314 317 320 322 326 328 332 344 350 354 360 360 359 358 356 355 353 354 356
298 303 302 302 299 305 308 308 307 309 310 310 312 315 318 321 322 324 327 331 335 344 351 356 360 359 359 362 357 354 354 354
297 301 302 301 301 305 307 307 308 309 310 311 312 314 316 319 321 323 325 329 333 337 353 356 358 359 356 354 354 354 353 354
299 303 300 301 301 303 307 307 307 308 309 310 312 315 317 319 321 323 327 331 333 334 349 353 352 352 352 350 351 352 352 355
300 302 301 301 300 304 306 307 308 308 309 310 312 314 315 317 320 322 325 328 332 335 340 350 351 352 352 351 351 351 352 355
297 301 302 300 299 302 305 307 308 309 311 311 311 312 314 316 320 322 323 325 327 332 337 341 352 351 352 352 351 349 350 351
298 297 293 301 291 300 303 304 306 308 309 311 311 312 314 316 318 320 321 323 326 329 333 335 341 347 355 346 343 344 349 350

GFSFLT1_sfc_thetae_099.txt.gz
Theta_e
315 313 311 312 319 319 319 321 321 321 327 328 329 337 345 350 351 351 356 359 363 364 365 365 365 365 363 362 362 362 362 362
310 310 316 317 321 320 319 320 321 322 321 330 337 339 348 351 351 353 352 355 361 363 364 364 364 364 363 363 363 363 363 362
309 310 316 318 320 319 318 319 319 320 318 324 339 346 349 350 351 353 352 353 362 362 363 364 364 364 363 363 363 363 363 362
305 309 315 316 320 319 319 319 319 318 318 323 335 344 347 349 352 353 352 353 362 360 362 362 363 362 362 362 362 363 363 362
305 308 311 314 320 317 317 319 317 320 316 325 327 332 348 350 353 352 353 352 358 356 359 361 361 361 361 361 361 361 361 360
306 304 306 314 316 318 317 315 321 319 315 318 324 329 335 348 349 350 351 351 356 354 352 354 357 360 360 360 360 360 360 359
303 305 307 313 311 315 318 315 317 319 318 322 323 326 332 338 345 346 347 351 355 352 352 351 350 355 358 359 359 359 359 358
309 309 309 311 311 312 312 312 312 315 319 321 322 323 328 332 336 342 344 347 353 355 354 352 349 355 352 350 352 353 353 356
309 309 310 309 309 312 309 308 311 312 315 319 320 322 323 328 333 338 344 346 349 357 361 354 350 351 353 347 347 349 351 356
310 310 309 307 309 308 310 310 314 315 316 317 317 319 321 324 329 334 342 346 349 355 362 363 353 350 353 346 348 347 346 359
309 309 309 309 307 307 308 311 313 314 314 315 316 318 322 324 326 332 338 346 349 354 363 366 367 354 354 353 349 350 350 354
308 308 308 306 306 308 309 312 312 312 313 313 315 317 320 323 325 329 340 345 348 353 363 362 363 364 360 360 351 350 349 352
306 307 306 308 304 305 310 312 311 311 313 314 315 316 318 321 326 330 333 341 345 353 358 364 363 361 362 355 354 350 351 361
306 307 308 306 300 308 312 310 310 310 311 312 314 316 318 321 323 326 330 332 335 343 352 363 364 361 360 357 355 353 354 357
302 307 305 304 301 307 311 310 309 311 311 312 314 316 319 320 322 324 328 331 333 338 343 353 366 361 363 366 360 358 357 356
300 304 304 303 302 306 309 309 309 311 312 312 313 315 319 320 322 324 327 331 333 334 344 354 354 363 357 357 361 360 358 356
302 305 303 303 303 306 309 309 309 310 311 312 313 317 318 320 322 323 327 330 334 335 341 342 340 346 350 350 355 356 357 361
302 305 304 303 302 306 308 309 310 310 311 312 314 315 317 319 320 320 326 329 332 334 339 341 339 348 349 352 351 354 354 360
299 303 305 303 300 303 307 309 310 311 312 313 313 314 316 317 319 322 324 327 329 332 335 339 346 347 355 354 353 349 350 352
300 298 295 304 294 303 306 307 309 311 312 312 313 315 316 317 319 321 322 324 327 331 334 336 342 342 347 345 343 344 346 348

GFSFLT1_sfc_thetae_102.txt.gz
Theta_e
311 310 306 310 318 320 319 321 321 320 324 328 328 340 343 345 350 354 354 357 363 366 366 366 366 364 362 362 362 362 362 362
306 306 313 315 319 323 319 321 322 322 322 330 339 340 347 349 348 352 352 355 362 364 365 365 365 364 363 362 363 363 362 362
306 308 313 318 321 321 318 319 320 320 319 328 339 345 346 347 349 348 351 360 361 364 364 365 366 365 363 363 363 363 363 362
302 307 313 317 321 320 319 320 320 319 319 327 340 341 343 346 348 350 352 361 360 362 364 364 364 364 363 362 362 363 363 362
303 305 309 314 320 317 317 318 319 322 316 324 330 341 345 346 349 350 352 360 358 356 361 363 362 362 362 361 362 362 361 361
304 303 304 312 317 319 317 316 322 321 314 316 324 330 338 345 345 346 348 356 356 356 355 359 360 362 361 361 361 361 361 360
301 302 306 312 310 316 320 317 319 319 319 322 324 325 329 336 342 343 345 353 353 349 352 352 354 359 361 361 361 361 360 360
308 308 307 310 311 312 311 312 314 316 319 321 322 322 323 328 335 339 341 346 353 350 350 349 347 356 357 358 358 358 358 358
307 309 310 309 309 312 310 309 312 312 314 318 319 322 322 323 330 336 342 344 351 356 355 350 348 355 351 350 353 355 356 357
308 310 308 307 310 308 309 310 313 314 315 316 317 319 319 321 324 329 339 339 351 357 358 356 352 353 354 348 348 348 349 354
309 309 309 309 307 307 308 312 313 313 314 314 315 318 320 321 323 329 332 348 348 354 360 357 362 363 355 349 348 347 349 349
308 308 308 306 306 307 308 311 311 312 311 312 314 316 318 323 327 333 338 349 350 350 346 358 358 365 368 356 352 349 349 348
306 306 305 307 303 304 309 311 310 311 312 313 314 315 316 322 331 335 333 353 346 349 332 335 361 363 363 363 355 353 349 351
305 306 307 305 298 306 310 310 309 309 311 312 314 315 319 323 329 345 336 342 352 346 349 356 362 361 360 358 360 353 357 355
301 307 306 305 300 306 310 310 309 310 311 311 313 317 321 324 330 338 336 339 340 345 343 358 362 362 362 362 360 359 355 355
299 304 305 302 301 305 308 309 309 310 311 312 313 315 322 323 326 329 331 334 337 339 343 350 352 362 360 359 359 361 358 354
303 306 303 302 303 304 308 308 308 309 311 313 314 318 321 325 327 330 332 335 339 341 346 346 345 347 355 351 354 356 357 361
302 305 303 302 302 305 307 308 309 309 311 313 315 316 319 324 330 329 329 333 340 344 346 347 347 346 343 350 352 352 356 357
298 302 304 302 299 302 306 309 310 311 313 314 314 315 319 322 326 327 331 334 336 342 345 345 346 342 342 352 353 346 351 356
300 298 293 302 292 301 305 307 309 311 312 312 314 316 319 321 323 326 326 332 333 338 341 337 343 340 342 339 336 343 345 349

GFSFLT1_sfc_thetae_105.txt.gz
Theta_e
300 297 297 299 312 316 317 317 316 314 322 327 331 338 337 348 353 355 354 358 362 364 363 363 363 361 361 361 361 361 361 362
297 296 302 307 312 318 321 316 317 317 321 331 341 342 343 350 352 352 351 359 364 364 363 363 363 362 361 361 361 361 362 362
294 298 306 311 314 320 318 317 314 316 324 327 340 344 344 349 350 348 353 358 362 363 364 364 364 362 361 361 361 361 362 362
291 298 306 311 313 317 315 316 316 315 324 326 338 339 341 344 348 349 356 357 359 363 363 363 363 362 361 360 360 361 361 361
295 298 302 306 312 313 314 315 314 316 317 318 324 336 340 341 347 355 356 354 356 359 362 363 362 362 361 361 360 360 359 359
294 296 297 307 308 312 312 313 319 320 311 309 319 324 339 339 352 353 355 353 352 355 358 357 359 362 361 361 360 360 359 359
294 297 299 306 304 308 316 314 315 315 315 318 321 321 320 330 340 351 353 351 350 351 352 353 356 360 361 362 361 360 359 359
301 303 301 305 303 304 307 309 310 313 317 318 318 315 314 316 333 337 347 348 347 348 349 348 356 355 355 357 357 356 357 355
303 305 304 302 303 305 304 302 308 310 312 313 314 314 315 315 317 333 346 347 345 346 347 345 345 354 353 354 354 354 353 353
304 306 304 302 306 304 304 304 309 309 310 311 309 309 312 313 315 315 322 345 345 346 345 343 344 350 349 350 351 352 352 353
305 304 302 305 304 303 302 308 310 309 310 308 308 309 309 311 313 313 322 343 346 347 345 344 346 347 346 344 346 346 348 350
303 302 302 301 302 303 305 308 308 308 307 306 307 309 309 311 312 317 338 339 346 347 349 350 351 350 348 344 344 343 344 345
301 301 300 303 298 299 304 307 305 307 308 308 308 309 308 309 312 317 325 339 340 342 346 345 344 350 355 353 345 342 342 343
297 301 303 300 293 302 306 304 304 306 307 308 308 309 310 311 313 314 321 336 342 338 335 333 330 346 353 353 353 347 344 344
296 302 302 300 294 302 305 304 304 304 305 306 306 308 309 312 317 320 321 321 326 334 329 330 341 350 352 352 351 352 346 347
295 299 300 297 296 301 303 304 304 304 305 306 307 308 310 311 315 317 319 322 324 326 331 336 343 350 352 350 351 351 351 348
296 301 298 294 296 299 302 300 301 302 304 305 306 309 312 314 314 318 321 321 320 321 326 330 331 329 345 346 349 351 353 351
297 301 297 296 296 299 301 301 302 302 303 304 306 308 311 312 316 317 317 321 325 324 322 325 328 331 333 335 343 349 352 352
295 299 298 296 293 296 301 302 303 304 304 305 306 306 308 314 314 316 316 318 322 321 325 323 327 328 327 329 332 337 341 346
298 294 287 295 286 293 298 300 303 304 304 304 306 308 313 312 312 312 312 315 321 323 322 324 323 324 322 323 323 327 329 334

GFSFLT1_sfc_thetae_108.txt.gz
Theta_e
298 294 292 295 304 309 314 318 314 315 327 329 328 341 342 350 355 358 357 358 359 362 362 362 361 360 360 360 360 360 361 361
295 294 301 302 305 309 311 319 315 322 323 333 343 339 346 354 355 354 355 358 363 362 361 362 361 360 360 360 360 360 361 360
291 295 301 305 307 309 315 312 312 324 324 329 340 347 351 351 351 352 354 358 361 363 362 362 361 361 360 360 359 360 360 360
289 294 303 306 306 308 315 313 313 325 325 326 343 344 347 350 348 354 354 357 360 363 362 361 361 360 360 360 359 359 360 360
293 296 298 304 305 304 306 313 312 324 318 319 329 343 347 347 347 354 355 354 357 359 361 363 361 360 359 359 359 359 359 358
292 295 296 304 304 301 306 310 320 320 311 310 317 336 342 345 349 352 353 352 354 356 358 358 359 361 360 359 359 358 358 358
292 296 298 303 301 307 308 311 312 315 316 318 322 321 342 346 348 350 351 350 353 355 356 357 357 360 360 361 360 359 358 358
299 300 299 303 299 303 304 304 308 311 316 317 317 314 318 340 343 346 346 347 349 351 352 354 358 357 357 358 358 356 356 355
301 303 301 300 301 303 302 300 304 305 308 309 311 311 311 319 341 346 348 347 347 349 351 351 353 354 355 356 356 355 354 353
301 303 302 301 303 302 301 303 307 307 309 308 306 306 308 309 314 325 345 346 345 346 346 347 351 352 352 353 353 352 353 352
302 302 301 302 301 302 302 306 307 307 309 306 306 306 306 307 308 311 334 344 343 344 344 344 346 349 349 349 351 351 351 351
300 300 299 299 301 301 304 307 306 305 304 305 306 306 307 305 307 325 336 340 342 343 343 340 344 344 344 345 348 348 350 351
298 299 298 301 297 298 304 305 304 304 304 305 305 305 305 306 307 311 337 342 343 344 346 347 348 348 345 343 342 343 344 348
295 299 301 299 293 300 303 303 302 303 304 307 306 307 308 308 310 321 336 338 341 347 342 345 340 335 349 349 344 342 341 342
295 299 298 296 294 300 303 302 301 303 303 304 305 306 307 311 319 323 330 336 334 334 338 336 332 335 346 349 348 345 341 340
291 296 296 295 295 300 301 300 300 301 302 303 304 304 306 311 317 319 326 332 330 332 330 329 331 335 346 348 347 347 347 345
295 298 295 293 294 296 299 297 299 300 300 302 303 306 307 308 315 316 318 320 323 325 327 327 327 326 332 342 343 345 348 348
294 298 296 293 293 296 297 298 299 300 301 301 302 304 306 308 314 316 316 317 321 323 322 324 324 327 328 328 331 336 343 349
292 297 296 293 291 293 298 299 301 301 301 302 303 304 305 313 313 316 318 318 316 319 319 321 323 321 320 321 322 324 326 331
295 291 286 293 284 289 294 297 299 300 300 300 303 304 309 312 311 311 314 319 321 319 322 320 319 318 318 318 316 318 322 327

GFSFLT1_sfc_thetae_111.txt.gz
Theta_e
297 292 292 295 302 306 308 310 313 320 328 328 330 341 342 350 356 357 355 357 359 362 361 361 360 360 359 359 359 360 360 360
294 292 297 300 302 304 307 309 316 322 325 333 340 341 348 355 356 355 354 356 361 362 361 360 360 360 359 359 359 359 359 359
290 294 300 301 304 304 304 308 316 323 325 329 342 350 351 353 354 352 353 355 359 361 361 360 360 360 360 359 359 359 360 359
289 295 302 301 303 303 302 306 324 327 325 326 345 346 349 350 350 353 353 356 357 361 361 360 360 359 359 358 359 359 359 359
289 294 297 302 301 300 301 302 311 327 322 325 339 345 348 347 350 352 354 355 355 356 359 361 359 359 358 358 358 358 358 358
291 292 295 304 301 300 300 304 319 325 314 314 333 344 346 344 348 349 351 352 353 355 357 356 356 359 359 359 358 358 358 357
292 295 296 300 299 303 305 306 310 313 317 321 332 342 341 343 346 347 349 347 351 353 355 355 355 357 358 360 359 358 358 357
298 300 298 298 298 300 303 304 306 310 313 315 337 339 340 340 341 344 345 346 350 351 353 353 356 354 354 355 355 355 353 352
299 302 299 298 300 302 302 300 303 304 306 308 310 321 339 340 342 343 346 346 347 349 350 351 352 354 354 354 354 354 352 352
299 302 297 298 301 300 299 301 305 305 307 306 305 306 314 330 338 342 344 345 346 347 348 348 349 351 351 351 352 351 352 351
300 299 297 300 299 299 300 304 305 305 306 304 304 304 305 310 315 333 343 345 344 346 346 347 348 349 350 350 351 351 351 351
298 297 297 298 299 299 302 306 305 303 303 303 303 304 303 304 307 309 327 343 344 344 345 345 346 346 347 348 349 349 350 350
296 298 297 299 296 297 303 304 303 302 302 302 303 304 305 305 305 322 324 329 341 342 344 341 343 345 344 345 345 346 347 348
295 297 299 299 292 299 303 301 300 301 302 303 303 304 305 305 304 317 333 337 337 343 341 340 341 342 345 343 341 342 342 343
293 298 297 295 291 299 301 300 299 300 301 302 301 304 305 306 307 323 335 336 338 340 341 342 336 337 344 348 344 341 340 339
291 295 295 293 293 297 300 298 299 300 300 301 302 304 306 308 315 325 334 334 334 338 338 337 332 333 336 341 345 346 343 340
293 296 294 292 292 295 298 295 296 297 298 300 301 304 304 310 316 322 330 331 330 330 329 330 329 327 329 335 340 341 344 345
293 295 293 292 292 295 296 295 296 298 299 299 299 302 304 308 312 317 321 320 323 325 325 327 326 325 326 326 328 330 333 334
291 295 294 291 289 292 296 297 299 298 298 299 300 301 301 306 311 313 316 319 322 322 321 320 321 320 317 317 316 315 319 322
293 289 284 291 282 288 293 294 296 298 297 298 300 301 302 308 311 314 316 317 316 317 318 319 317 315 314 313 311 314 317 321

GFSFLT1_sfc_thetae_114.txt.gz
Theta_e
297 291 293 296 301 303 305 307 308 318 327 327 328 341 341 347 353 355 355 357 358 362 361 361 360 359 358 359 359 359 359 359
294 291 296 299 301 302 304 305 311 321 324 332 340 342 345 354 355 353 354 356 360 361 361 360 359 359 358 358 359 359 359 359
290 293 299 301 303 303 301 302 309 323 324 326 342 349 353 353 353 351 352 355 359 361 360 360 360 360 358 358 358 359 359 359
288 294 301 303 302 300 299 301 321 324 325 326 345 347 351 353 351 352 351 355 356 359 359 359 360 359 358 357 357 358 359 359
290 295 295 302 300 298 298 300 309 327 321 325 339 345 350 349 350 351 353 353 353 355 358 359 359 358 358 357 357 357 357 357
291 292 294 302 300 297 299 302 313 325 317 320 334 345 344 346 347 348 351 352 352 353 354 354 355 359 358 357 357 357 357 357
291 293 296 300 299 302 303 302 308 312 316 321 342 342 340 343 344 345 348 347 350 351 352 352 352 356 358 358 358 358 357 357
297 297 296 298 300 300 301 302 304 309 311 338 341 339 337 339 340 342 343 346 348 350 351 350 353 351 352 353 355 354 354 353
299 298 298 297 298 301 300 298 301 303 305 316 332 336 337 338 340 341 343 345 348 348 351 352 351 352 352 352 353 352 351 351
299 301 300 297 299 299 301 302 304 305 306 306 317 326 332 336 339 340 342 343 346 348 350 350 351 352 351 350 352 350 352 350
300 299 297 299 297 299 300 304 304 303 305 304 304 308 313 333 337 340 341 343 344 347 348 349 349 351 349 349 350 350 350 350
297 297 294 296 297 297 300 304 303 302 302 303 303 303 304 307 312 334 342 344 344 345 347 348 348 349 349 348 350 349 350 350
295 296 296 296 293 294 302 303 302 301 301 301 302 302 303 305 306 310 325 341 342 343 345 346 346 347 347 348 349 349 348 349
294 296 298 297 289 298 302 301 300 300 300 301 301 302 303 304 304 308 318 325 338 344 342 343 343 345 345 344 344 345 346 347
293 297 297 294 290 298 299 298 298 299 299 300 301 302 304 305 304 309 317 332 334 338 339 340 339 341 344 343 341 342 343 343
290 295 294 291 292 296 298 298 298 298 299 300 300 302 304 305 306 310 327 334 335 337 338 338 336 337 340 344 347 346 342 340
292 295 292 290 291 294 297 295 295 296 297 298 299 303 304 305 313 321 331 332 334 336 336 335 333 332 332 332 339 343 346 347
292 295 292 292 291 294 296 296 296 296 297 298 300 300 303 307 315 322 330 332 331 334 333 336 332 328 329 330 331 333 334 336
290 293 292 291 289 291 296 296 297 298 298 299 300 300 301 304 310 316 324 325 327 328 329 328 325 323 319 319 317 317 320 324
292 289 284 290 282 288 292 293 296 297 297 298 299 300 300 302 308 314 319 320 322 322 322 322 322 318 316 313 312 315 318 322

GFSFLT1_sfc_thetae_117.txt.gz
Theta_e
308 306 306 308 310 312 313 312 312 317 333 332 331 343 344 350 356 357 359 359 360 361 361 361 360 360 360 360 360 361 361 361
304 304 306 311 311 311 310 311 315 321 328 337 345 344 348 355 356 355 357 358 361 361 361 361 361 360 359 359 359 360 360 360
301 303 305 308 310 310 308 309 312 330 328 333 345 353 356 355 355 353 356 358 359 361 361 361 360 359 359 359 358 359 360 359
299 301 305 308 311 309 307 309 311 327 331 334 349 352 355 355 355 355 356 358 357 360 360 360 360 359 358 357 358 358 358 358
299 301 302 306 309 307 307 308 312 332 329 334 345 352 355 355 355 356 357 358 357 356 359 360 359 358 357 357 357 358 358 358
299 298 301 306 307 309 307 308 318 332 327 328 343 353 354 354 353 354 356 356 355 356 353 355 357 359 358 357 357 357 357 357
297 298 301 306 305 308 310 308 314 319 321 329 349 350 350 349 350 351 352 355 355 352 354 353 353 356 357 357 357 357 357 357
303 303 302 304 305 306 307 308 313 316 337 344 346 346 344 344 344 346 348 352 354 354 353 353 350 355 355 354 354 354 354 356
302 303 305 305 304 307 306 306 310 314 332 342 344 343 342 341 342 343 348 351 353 356 356 353 350 353 354 353 355 356 357 358
302 304 305 303 305 304 305 308 310 311 316 339 342 343 342 342 343 345 347 350 353 356 357 356 353 353 353 352 354 354 355 358
303 303 304 304 302 303 305 309 311 311 311 318 338 343 345 347 347 347 346 349 352 355 356 357 357 355 355 354 354 355 356 356
301 302 303 300 302 303 306 309 309 310 311 312 315 324 331 334 347 349 350 349 351 354 357 357 357 358 356 357 356 356 356 354
299 300 300 301 298 299 305 309 308 309 311 311 312 313 315 319 333 347 351 354 353 353 356 357 357 358 356 356 356 355 355 354
300 300 301 301 295 303 307 305 307 309 309 310 312 313 315 317 321 325 338 349 355 353 353 355 356 356 355 355 356 355 354 354
296 300 301 300 297 303 305 306 307 308 309 310 312 314 316 317 318 322 326 334 345 354 353 354 355 354 355 356 355 354 355 355
294 298 298 298 298 302 305 305 307 308 309 309 310 312 318 318 318 320 323 333 343 346 352 353 352 352 353 353 353 353 352 352
297 299 298 298 300 302 305 304 306 307 308 309 310 314 314 315 318 319 324 334 341 346 350 349 347 347 348 348 351 352 355 356
297 299 299 299 299 303 304 305 306 306 307 307 309 311 312 315 321 322 328 338 343 347 349 348 347 348 347 347 349 351 351 347
294 297 299 297 296 299 303 303 305 307 307 308 309 311 313 313 319 325 330 338 343 347 349 349 348 340 340 340 338 333 337 335
296 294 291 296 289 296 300 302 303 306 306 310 312 313 314 314 316 322 327 336 343 345 347 344 341 339 341 336 330 328 329 332

GFSFLT1_sfc_thetae_120.txt.gz
Theta_e
313 312 310 311 318 318 320 318 319 324 336 335 334 344 344 352 356 356 360 360 361 363 363 362 362 362 362 362 362 362 362 362
308 310 316 317 319 319 319 317 320 323 330 340 346 344 348 354 354 355 356 359 361 362 362 362 361 361 361 362 361 362 362 362
309 311 317 319 321 319 318 316 317 327 328 335 348 354 353 353 352 352 355 358 360 361 362 361 361 361 360 361 361 361 361 361
307 311 316 318 321 319 318 317 316 327 329 337 353 354 352 354 352 352 355 358 359 361 361 361 360 360 359 359 359 360 360 360
311 312 312 316 320 317 318 317 317 332 327 339 348 356 355 355 354 353 357 357 357 357 360 360 360 359 358 358 358 358 359 359
307 307 310 314 313 316 315 317 323 330 326 330 349 358 357 357 354 353 355 355 355 354 353 355 356 359 358 358 358 358 358 358
305 306 308 313 312 315 315 314 320 329 329 339 354 357 354 353 351 349 351 354 354 351 352 352 353 355 357 357 358 358 357 358
311 309 306 309 309 312 312 313 319 324 337 343 351 352 349 348 346 347 348 351 353 353 353 352 350 356 354 352 352 351 351 355
312 308 312 310 310 311 311 312 316 320 331 343 347 349 346 345 345 346 348 350 353 357 357 354 351 353 352 352 352 354 356 357
306 310 311 308 311 309 309 317 316 315 320 344 345 345 343 344 345 345 347 349 353 358 359 358 353 352 354 353 354 355 357 361
307 308 311 312 310 309 309 313 316 316 315 331 345 344 346 347 348 349 348 351 353 357 361 360 358 354 355 355 355 357 358 360
307 308 308 309 307 311 311 314 314 315 315 317 332 341 347 349 350 351 353 353 354 356 361 361 360 360 357 358 357 358 358 359
308 307 308 311 306 305 311 312 312 314 316 315 317 323 329 337 343 347 351 356 356 357 361 363 362 362 361 359 358 358 357 362
308 309 309 307 301 310 313 311 310 313 314 315 317 318 320 322 327 336 342 348 356 354 357 361 362 361 360 359 359 358 358 359
299 303 303 304 302 309 313 310 310 312 314 314 316 318 321 322 324 329 337 344 351 358 357 359 363 361 362 363 360 359 359 357
294 301 300 299 299 304 310 309 309 310 314 316 315 317 320 324 325 326 330 336 342 350 358 361 361 362 359 358 359 359 357 357
299 302 301 299 298 302 307 309 309 311 312 314 315 318 321 323 325 326 330 334 341 346 354 357 354 353 353 353 355 356 356 357
300 302 302 301 300 303 306 308 310 311 312 313 315 317 320 321 324 325 329 333 339 345 353 356 352 353 353 355 355 356 354 359
297 302 302 301 299 302 306 308 309 311 313 314 315 316 318 320 323 328 329 333 337 344 352 356 356 356 355 356 355 352 354 352
299 298 294 302 292 299 304 305 308 310 311 313 316 318 320 321 323 327 329 333 338 346 353 355 358 353 354 349 346 346 347 344

GFSFLT1_sfc_thetae_126.txt.gz
Theta_e
311 308 305 307 316 318 323 323 322 323 333 338 327 338 342 346 355 356 357 360 363 365 365 366 365 363 362 362 362 362 362 363
307 306 312 313 317 320 320 324 323 325 330 334 343 344 344 349 353 353 353 358 362 364 364 365 365 364 363 363 362 362 363 363
306 308 313 318 320 321 320 322 321 324 330 332 343 346 346 350 351 350 352 359 359 363 364 365 365 364 363 362 362 362 362 362
303 308 315 318 321 323 323 323 322 320 333 338 345 343 345 348 349 349 356 355 357 362 363 363 363 363 362 361 362 362 362 361
306 309 313 317 322 321 322 321 321 323 325 340 342 345 346 347 350 353 356 352 356 356 361 363 362 362 362 361 361 361 360 360
307 308 309 319 321 324 323 321 327 326 321 333 339 346 346 346 348 352 352 350 351 353 353 356 359 362 361 361 361 360 360 360
305 309 312 318 318 324 327 323 323 324 340 344 346 347 344 343 346 348 349 350 348 347 350 349 350 357 359 359 359 359 359 359
311 313 311 316 316 320 320 318 318 322 345 347 345 344 341 341 342 344 347 347 348 347 348 347 345 353 351 350 352 352 351 355
311 315 316 317 316 321 313 315 318 319 327 345 343 344 342 341 342 343 347 346 347 350 351 348 347 349 348 347 347 349 350 353
312 315 316 314 318 313 313 316 320 322 325 333 343 340 340 340 342 343 345 346 348 352 352 354 353 351 349 348 348 347 349 355
312 314 313 317 312 312 312 317 320 319 321 324 337 338 341 342 343 344 345 347 348 353 354 358 361 354 350 351 350 351 350 354
313 313 314 311 314 313 313 318 319 318 317 319 330 333 336 343 341 342 347 348 351 353 359 359 364 363 358 356 354 355 355 354
311 312 311 314 307 308 314 316 316 319 318 320 320 332 335 341 344 342 344 350 355 356 360 361 363 367 361 364 359 356 360 361
310 312 313 311 302 312 317 315 314 319 319 320 320 323 336 344 338 333 331 347 353 354 360 363 362 365 364 361 361 363 358 362
304 312 310 309 304 313 317 317 314 317 319 319 318 321 331 338 332 333 334 329 353 357 360 362 367 364 364 367 367 360 363 359
300 306 308 306 307 312 316 316 315 316 317 318 320 321 325 333 329 327 328 335 354 358 364 364 364 366 363 362 362 366 364 358
303 306 306 306 308 310 313 316 314 314 314 315 318 322 323 326 328 327 333 338 345 358 366 362 362 359 357 357 358 358 363 363
304 307 308 307 307 309 310 314 315 313 313 314 315 320 324 323 328 327 341 346 346 353 369 362 359 359 357 353 354 356 356 360
300 305 306 305 305 303 307 309 314 314 315 317 314 314 321 327 330 337 338 343 347 351 358 365 360 361 363 363 361 357 354 357
300 297 294 304 290 300 303 304 308 312 313 313 314 316 316 319 324 338 337 338 344 351 357 359 361 357 357 349 348 348 355 356

GFSFLT1_sfc_thetae_129.txt.gz
Theta_e
300 297 295 298 308 311 316 320 319 332 331 326 326 336 342 351 356 356 354 358 362 365 364 364 363 361 360 360 360 361 361 362
297 296 302 306 310 313 316 321 319 331 327 332 335 340 343 353 356 353 354 358 363 364 364 363 363 362 361 361 361 361 361 362
295 299 306 310 313 314 314 318 320 325 325 327 332 344 349 352 353 351 354 358 361 363 364 363 363 362 361 361 360 361 361 361
292 299 307 311 315 315 315 318 320 329 325 328 339 342 348 350 349 352 354 357 360 363 363 362 362 362 360 360 360 360 360 360
296 300 304 310 315 314 316 317 319 336 329 331 338 344 347 347 348 354 353 354 357 359 362 363 362 361 360 359 359 360 359 359
298 299 302 311 314 319 318 318 327 334 330 326 335 342 344 345 351 350 349 351 352 355 358 359 359 361 360 359 360 359 359 358
298 300 304 313 313 320 323 317 318 333 336 339 342 342 338 347 347 345 347 347 349 351 353 355 356 359 360 361 360 359 359 358
303 305 305 310 313 313 316 313 316 328 341 344 344 344 341 339 342 341 341 343 346 346 347 348 355 355 354 356 355 354 353 353
304 307 309 310 314 318 312 307 312 312 323 340 338 337 340 339 342 341 342 343 342 343 343 342 345 348 347 348 347 347 346 348
305 308 308 309 312 315 314 311 316 318 321 337 336 333 335 336 340 342 342 342 342 342 341 340 345 341 341 342 341 340 342 346
306 307 305 311 309 310 312 315 316 318 319 321 334 335 331 337 341 338 341 341 342 343 342 343 342 340 342 341 341 341 341 346
304 305 309 307 310 310 312 315 314 315 316 318 329 333 336 337 338 340 339 340 343 343 343 348 344 341 342 343 342 342 342 346
302 304 305 309 306 307 313 313 311 313 315 318 321 327 329 336 336 338 337 336 338 343 345 350 349 345 343 347 344 344 344 345
299 303 308 307 299 308 312 312 310 312 314 317 318 319 324 332 338 336 333 332 335 342 344 351 351 353 350 348 348 349 349 349
295 306 306 305 299 307 311 311 312 313 313 315 317 318 324 334 339 339 333 331 333 335 337 348 353 355 352 351 351 349 351 355
293 302 304 302 301 307 311 311 311 311 313 314 316 315 321 332 336 337 332 332 332 336 334 335 355 355 352 352 354 353 352 355
298 304 302 301 302 304 309 310 310 310 312 312 313 315 317 326 331 331 331 332 331 332 332 333 354 353 351 349 352 351 355 353
300 304 302 301 301 305 308 311 312 311 311 312 311 314 315 321 323 326 329 330 329 336 338 338 355 355 352 351 351 352 351 352
295 302 305 302 297 300 306 311 312 313 314 314 312 313 313 314 320 323 323 326 328 334 350 353 354 354 350 347 344 346 346 348
299 297 292 302 286 297 302 304 308 310 312 313 311 312 312 312 311 317 327 332 333 335 339 348 348 348 342 337 339 337 345 349